Observation data for Crane on 11/08/2019      Previous  Date       Current Mesonet Observations  Soil Data  Daily Summary Page  Observations in Plain Language
KCR2 080600Z 34004KT 04/02 A3047 RMK A01 T00420024  RH  088%=      5-min Rain = 0
KCR2 080601Z 33005KT 04/03 A3047 RMK A01 T00420025  RH  088%=      5-min Rain = 0
KCR2 080602Z 34005KT 04/02 A3047 RMK A01 T00420024  RH  088%=      5-min Rain = 0
KCR2 080603Z 35004KT 04/02 A3047 RMK A01 T00420023  RH  088%=      5-min Rain = 0
KCR2 080604Z 35003KT 04/02 A3047 RMK A01 T00420023  RH  087%=      5-min Rain = 0
KCR2 080605Z 35002KT 04/02 A3047 RMK A01 T00420024  RH  088%=      5-min Rain = 0
KCR2 080606Z 36004KT 04/02 A3047 RMK A01 T00420024  RH  088%=      5-min Rain = 0
KCR2 080607Z 35004KT 04/02 A3047 RMK A01 T00420024  RH  088%=      5-min Rain = 0
KCR2 080608Z 34003KT 04/02 A3047 RMK A01 T00420024  RH  088%=      5-min Rain = 0
KCR2 080609Z 33004KT 04/02 A3047 RMK A01 T00420024  RH  088%=      5-min Rain = 0
KCR2 080610Z 33004KT 04/02 A3047 RMK A01 T00420023  RH  088%=      5-min Rain = 0
KCR2 080611Z 34004KT 04/02 A3047 RMK A01 T00420023  RH  088%=      5-min Rain = 0
KCR2 080612Z 32003KT 04/02 A3047 RMK A01 T00420024  RH  088%=      5-min Rain = 0
KCR2 080613Z 33004KT 04/02 A3047 RMK A01 T00420024  RH  088%=      5-min Rain = 0
KCR2 080614Z 34004KT 04/02 A3047 RMK A01 T00430024  RH  088%=      5-min Rain = 0
KCR2 080615Z 34004KT 04/02 A3047 RMK A01 T00430024  RH  088%=      5-min Rain = 0
KCR2 080616Z 34004KT 04/02 A3046 RMK A01 T00430023  RH  087%=      5-min Rain = 0
KCR2 080617Z 36004KT 04/02 A3046 RMK A01 T00420023  RH  087%=      5-min Rain = 0
KCR2 080618Z 35004KT 04/02 A3046 RMK A01 T00420023  RH  087%=      5-min Rain = 0
KCR2 080619Z 35005KT 04/02 A3046 RMK A01 T00430023  RH  087%=      5-min Rain = 0
KCR2 080620Z 35004KT 04/02 A3046 RMK A01 T00430023  RH  087%=      5-min Rain = 0
KCR2 080621Z 34006KT 04/02 A3046 RMK A01 T00430024  RH  088%=      5-min Rain = 0
KCR2 080622Z 34004KT 04/02 A3046 RMK A01 T00420023  RH  087%=      5-min Rain = 0
KCR2 080623Z 01003KT 04/02 A3045 RMK A01 T00420023  RH  087%=      5-min Rain = 0
KCR2 080624Z 35003KT 04/02 A3045 RMK A01 T00420024  RH  088%=      5-min Rain = 0
KCR2 080625Z 34003KT 04/02 A3045 RMK A01 T00420024  RH  088%=      5-min Rain = 0
KCR2 080626Z 35003KT 04/02 A3045 RMK A01 T00420024  RH  088%=      5-min Rain = 0
KCR2 080627Z 34003KT 04/03 A3045 RMK A01 T00430025  RH  088%=      5-min Rain = 0
KCR2 080628Z 34004KT 04/03 A3045 RMK A01 T00430025  RH  088%=      5-min Rain = 0
KCR2 080629Z 34004KT 04/02 A3045 RMK A01 T00430024  RH  087%=      5-min Rain = 0
KCR2 080630Z 34003KT 04/02 A3045 RMK A01 T00430024  RH  087%=      5-min Rain = 0
KCR2 080631Z 34004KT 04/02 A3045 RMK A01 T00430024  RH  087%=      5-min Rain = 0
KCR2 080632Z 34004KT 04/02 A3045 RMK A01 T00430024  RH  088%=      5-min Rain = 0
KCR2 080633Z 33004KT 04/02 A3045 RMK A01 T00430024  RH  088%=      5-min Rain = 0
KCR2 080634Z 34005KT 04/02 A3045 RMK A01 T00430024  RH  088%=      5-min Rain = 0
KCR2 080635Z 33005KT 04/03 A3045 RMK A01 T00430025  RH  088%=      5-min Rain = 0
KCR2 080636Z 33004KT 04/02 A3045 RMK A01 T00430024  RH  088%=      5-min Rain = 0
KCR2 080637Z 33004KT 04/03 A3045 RMK A01 T00430025  RH  088%=      5-min Rain = 0
KCR2 080638Z 34004KT 04/03 A3045 RMK A01 T00430025  RH  088%=      5-min Rain = 0
KCR2 080639Z 34004KT 04/02 A3045 RMK A01 T00430024  RH  088%=      5-min Rain = 0
KCR2 080640Z 34004KT 04/03 A3045 RMK A01 T00430025  RH  088%=      5-min Rain = 0
KCR2 080641Z 36004KT 04/03 A3045 RMK A01 T00430025  RH  088%=      5-min Rain = 0
KCR2 080642Z 35004KT 04/02 A3045 RMK A01 T00430024  RH  088%=      5-min Rain = 0
KCR2 080643Z 36006KT 04/02 A3045 RMK A01 T00430024  RH  087%=      5-min Rain = 0
KCR2 080644Z 01006KT 04/02 A3045 RMK A01 T00430023  RH  087%=      5-min Rain = 0
KCR2 080645Z 36005KT 04/02 A3045 RMK A01 T00430023  RH  087%=      5-min Rain = 0
KCR2 080646Z 35004KT 04/02 A3045 RMK A01 T00430022  RH  086%=      5-min Rain = 0
KCR2 080647Z 36006KT 04/02 A3045 RMK A01 T00430022  RH  086%=      5-min Rain = 0
KCR2 080648Z 00005KT 04/02 A3045 RMK A01 T00430022  RH  086%=      5-min Rain = 0
KCR2 080649Z 01005KT 04/02 A3045 RMK A01 T00430021  RH  086%=      5-min Rain = 0
KCR2 080650Z 00004KT 04/02 A3045 RMK A01 T00430022  RH  086%=      5-min Rain = 0
KCR2 080651Z 01004KT 04/02 A3045 RMK A01 T00430023  RH  087%=      5-min Rain = 0
KCR2 080652Z 01004KT 04/02 A3045 RMK A01 T00430023  RH  086%=      5-min Rain = 0
KCR2 080653Z 00005KT 04/02 A3045 RMK A01 T00440023  RH  086%=      5-min Rain = 0
KCR2 080654Z 36004KT 04/02 A3045 RMK A01 T00430022  RH  086%=      5-min Rain = 0
KCR2 080655Z 00004KT 04/02 A3045 RMK A01 T00430021  RH  086%=      5-min Rain = 0
KCR2 080656Z 36004KT 04/02 A3045 RMK A01 T00430022  RH  086%=      5-min Rain = 0
KCR2 080657Z 36004KT 04/02 A3045 RMK A01 T00430023  RH  087%=      5-min Rain = 0
KCR2 080658Z 36004KT 04/02 A3045 RMK A01 T00430023  RH  087%=      5-min Rain = 0
KCR2 080659Z 36004KT 04/02 A3045 RMK A01 T00430023  RH  086%=      5-min Rain = 0
KCR2 080700Z 00003KT 04/02 A3045 RMK A01 T00430022  RH  086%=      5-min Rain = 0
KCR2 080701Z 01003KT 04/02 A3044 RMK A01 T00430022  RH  086%=      5-min Rain = 0
KCR2 080702Z 00003KT 04/02 A3044 RMK A01 T00430023  RH  087%=      5-min Rain = 0
KCR2 080703Z 00004KT 04/02 A3044 RMK A01 T00440024  RH  087%=      5-min Rain = 0
KCR2 080704Z 00005KT 04/02 A3044 RMK A01 T00430023  RH  087%=      5-min Rain = 0
KCR2 080705Z 02004KT 04/02 A3044 RMK A01 T00440023  RH  087%=      5-min Rain = 0
KCR2 080706Z 03005KT 04/02 A3044 RMK A01 T00440024  RH  087%=      5-min Rain = 0
KCR2 080707Z 02004KT 04/02 A3044 RMK A01 T00440024  RH  087%=      5-min Rain = 0
KCR2 080708Z 02005KT 04/02 A3044 RMK A01 T00430024  RH  087%=      5-min Rain = 0
KCR2 080709Z 01005KT 04/02 A3044 RMK A01 T00430024  RH  087%=      5-min Rain = 0
KCR2 080710Z 01005KT 04/02 A3044 RMK A01 T00440024  RH  087%=      5-min Rain = 0
KCR2 080711Z 01004KT 04/02 A3044 RMK A01 T00430024  RH  087%=      5-min Rain = 0
KCR2 080712Z 01004KT 04/02 A3044 RMK A01 T00430023  RH  087%=      5-min Rain = 0
KCR2 080713Z 01004KT 04/02 A3044 RMK A01 T00430023  RH  087%=      5-min Rain = 0
KCR2 080714Z 36003KT 04/02 A3044 RMK A01 T00430024  RH  087%=      5-min Rain = 0
KCR2 080715Z 00004KT 04/02 A3044 RMK A01 T00430024  RH  088%=      5-min Rain = 0
KCR2 080716Z 35003KT 04/02 A3044 RMK A01 T00430024  RH  087%=      5-min Rain = 0
KCR2 080717Z 35003KT 04/02 A3044 RMK A01 T00430024  RH  088%=      5-min Rain = 0
KCR2 080718Z 35004KT 04/03 A3044 RMK A01 T00430025  RH  088%=      5-min Rain = 0
KCR2 080719Z 36005KT 04/03 A3044 RMK A01 T00430025  RH  088%=      5-min Rain = 0
KCR2 080720Z 35004KT 04/02 A3044 RMK A01 T00430024  RH  088%=      5-min Rain = 0
KCR2 080721Z 33004KT 04/03 A3044 RMK A01 T00430025  RH  088%=      5-min Rain = 0
KCR2 080722Z 35004KT 04/03 A3045 RMK A01 T00430025  RH  088%=      5-min Rain = 0
KCR2 080723Z 35005KT 04/03 A3045 RMK A01 T00430026  RH  088%=      5-min Rain = 0
KCR2 080724Z 35004KT 04/03 A3044 RMK A01 T00430026  RH  089%=      5-min Rain = 0
KCR2 080725Z 35004KT 04/03 A3044 RMK A01 T00430025  RH  088%=      5-min Rain = 0
KCR2 080726Z 35005KT 04/03 A3044 RMK A01 T00430026  RH  088%=      5-min Rain = 0
KCR2 080727Z 35006KT 04/03 A3044 RMK A01 T00430026  RH  089%=      5-min Rain = 0
KCR2 080728Z 35004KT 04/03 A3044 RMK A01 T00430026  RH  089%=      5-min Rain = 0
KCR2 080729Z 35005KT 04/03 A3044 RMK A01 T00430026  RH  089%=      5-min Rain = 0
KCR2 080730Z 35004KT 04/03 A3044 RMK A01 T00430026  RH  089%=      5-min Rain = 0
KCR2 080731Z 36004KT 04/03 A3044 RMK A01 T00430027  RH  089%=      5-min Rain = 0
KCR2 080732Z 35005KT 04/03 A3044 RMK A01 T00430027  RH  089%=      5-min Rain = 0
KCR2 080733Z 00004KT 04/03 A3044 RMK A01 T00430027  RH  089%=      5-min Rain = 0
KCR2 080734Z 01004KT 04/03 A3044 RMK A01 T00430027  RH  089%=      5-min Rain = 0
KCR2 080735Z 02005KT 04/03 A3044 RMK A01 T00430027  RH  089%=      5-min Rain = 0
KCR2 080736Z 00003KT 04/03 A3044 RMK A01 T00430026  RH  089%=      5-min Rain = 0
KCR2 080737Z 36004KT 04/03 A3045 RMK A01 T00430027  RH  089%=      5-min Rain = 0
KCR2 080738Z 00004KT 04/03 A3044 RMK A01 T00430027  RH  089%=      5-min Rain = 0
KCR2 080739Z 36004KT 04/03 A3044 RMK A01 T00430027  RH  089%=      5-min Rain = 0
KCR2 080740Z 35005KT 04/03 A3044 RMK A01 T00430026  RH  089%=      5-min Rain = 0
KCR2 080741Z 35005KT 04/03 A3044 RMK A01 T00430026  RH  089%=      5-min Rain = 0
KCR2 080742Z 01004KT 04/03 A3044 RMK A01 T00430026  RH  089%=      5-min Rain = 0
KCR2 080743Z 01005KT 04/03 A3044 RMK A01 T00430026  RH  089%=      5-min Rain = 0
KCR2 080744Z 02006KT 04/03 A3044 RMK A01 T00430027  RH  090%=      5-min Rain = 0
KCR2 080745Z 01006KT 04/03 A3044 RMK A01 T00430027  RH  089%=      5-min Rain = 0
KCR2 080746Z 01004KT 04/03 A3044 RMK A01 T00430027  RH  089%=      5-min Rain = 0
KCR2 080747Z 01005KT 04/03 A3044 RMK A01 T00420027  RH  089%=      5-min Rain = 0
KCR2 080748Z 00005KT 04/03 A3044 RMK A01 T00430027  RH  090%=      5-min Rain = 0
KCR2 080749Z 00005KT 04/03 A3044 RMK A01 T00430027  RH  090%=      5-min Rain = 0
KCR2 080750Z 36005KT 04/03 A3045 RMK A01 T00430027  RH  090%=      5-min Rain = 0
KCR2 080751Z 36006KT 04/03 A3045 RMK A01 T00420027  RH  090%=      5-min Rain = 0
KCR2 080752Z 35005KT 04/03 A3045 RMK A01 T00430027  RH  090%=      5-min Rain = 0
KCR2 080753Z 35005KT 04/03 A3045 RMK A01 T00430027  RH  090%=      5-min Rain = 0
KCR2 080754Z 35005KT 04/03 A3045 RMK A01 T00420027  RH  090%=      5-min Rain = 0
KCR2 080755Z 01003KT 04/03 A3045 RMK A01 T00420026  RH  089%=      5-min Rain = 0
KCR2 080756Z 36003KT 04/03 A3044 RMK A01 T00420027  RH  090%=      5-min Rain = 0
KCR2 080757Z 36004KT 04/03 A3044 RMK A01 T00430028  RH  090%=      5-min Rain = 0
KCR2 080758Z 01005KT 04/03 A3044 RMK A01 T00430027  RH  090%=      5-min Rain = 0
KCR2 080759Z 00007KT 04/03 A3044 RMK A01 T00420027  RH  090%=      5-min Rain = 0
KCR2 080800Z 36008KT 04/03 A3044 RMK A01 T00420026  RH  089%=      5-min Rain = 0
KCR2 080801Z 00007KT 04/03 A3044 RMK A01 T00430026  RH  089%=      5-min Rain = 0
KCR2 080802Z 00007KT 04/03 A3044 RMK A01 T00430026  RH  089%=      5-min Rain = 0
KCR2 080803Z 01006KT 04/03 A3044 RMK A01 T00430026  RH  089%=      5-min Rain = 0
KCR2 080804Z 36006KT 04/03 A3044 RMK A01 T00430026  RH  089%=      5-min Rain = 0
KCR2 080805Z 00006KT 04/03 A3044 RMK A01 T00430026  RH  089%=      5-min Rain = 0
KCR2 080806Z 00007KT 04/03 A3044 RMK A01 T00430026  RH  089%=      5-min Rain = 0
KCR2 080807Z 01005KT 04/03 A3044 RMK A01 T00430027  RH  089%=      5-min Rain = 0
KCR2 080808Z 00005KT 04/03 A3044 RMK A01 T00430027  RH  089%=      5-min Rain = 0
KCR2 080809Z 01004KT 04/03 A3044 RMK A01 T00430027  RH  089%=      5-min Rain = 0
KCR2 080810Z 02004KT 04/03 A3044 RMK A01 T00430027  RH  089%=      5-min Rain = 0
KCR2 080811Z 02005KT 04/03 A3044 RMK A01 T00430028  RH  089%=      5-min Rain = 0
KCR2 080812Z 01005KT 04/03 A3044 RMK A01 T00440028  RH  089%=      5-min Rain = 0
KCR2 080813Z 01005KT 04/03 A3044 RMK A01 T00440028  RH  089%=      5-min Rain = 0
KCR2 080814Z 01006KT 04/03 A3044 RMK A01 T00440028  RH  089%=      5-min Rain = 0
KCR2 080815Z 02006KT 04/03 A3044 RMK A01 T00440027  RH  089%=      5-min Rain = 0
KCR2 080816Z 02007KT 04/03 A3044 RMK A01 T00440027  RH  089%=      5-min Rain = 0
KCR2 080817Z 02006KT 04/03 A3044 RMK A01 T00440027  RH  089%=      5-min Rain = 0
KCR2 080818Z 01007KT 04/03 A3044 RMK A01 T00440027  RH  089%=      5-min Rain = 0
KCR2 080819Z 01006KT 04/03 A3044 RMK A01 T00430026  RH  089%=      5-min Rain = 0
KCR2 080820Z 01005KT 04/03 A3044 RMK A01 T00440027  RH  089%=      5-min Rain = 0
KCR2 080821Z 01006KT 04/03 A3044 RMK A01 T00430027  RH  089%=      5-min Rain = 0
KCR2 080822Z 01007KT 04/03 A3044 RMK A01 T00430027  RH  089%=      5-min Rain = 0
KCR2 080823Z 00006KT 04/03 A3044 RMK A01 T00430027  RH  089%=      5-min Rain = 0
KCR2 080824Z 01006KT 04/03 A3044 RMK A01 T00430027  RH  089%=      5-min Rain = 0
KCR2 080825Z 02005KT 04/03 A3043 RMK A01 T00430027  RH  089%=      5-min Rain = 0
KCR2 080826Z 03004KT 04/03 A3043 RMK A01 T00440027  RH  089%=      5-min Rain = 0
KCR2 080827Z 03004KT 04/03 A3043 RMK A01 T00440028  RH  090%=      5-min Rain = 0
KCR2 080828Z 03005KT 04/03 A3043 RMK A01 T00440029  RH  090%=      5-min Rain = 0
KCR2 080829Z 03006KT 04/03 A3043 RMK A01 T00440029  RH  090%=      5-min Rain = 0
KCR2 080830Z 02006KT 04/03 A3043 RMK A01 T00440028  RH  089%=      5-min Rain = 0
KCR2 080831Z 02004KT 04/03 A3043 RMK A01 T00430027  RH  089%=      5-min Rain = 0
KCR2 080832Z 03005KT 04/03 A3043 RMK A01 T00440028  RH  090%=      5-min Rain = 0
KCR2 080833Z 02005KT 04/03 A3043 RMK A01 T00440028  RH  090%=      5-min Rain = 0
KCR2 080834Z 02004KT 04/03 A3043 RMK A01 T00440028  RH  090%=      5-min Rain = 0
KCR2 080835Z 02004KT 04/03 A3043 RMK A01 T00440029  RH  090%=      5-min Rain = 0
KCR2 080836Z 02005KT 04/03 A3043 RMK A01 T00430029  RH  091%=      5-min Rain = 0
KCR2 080837Z 02006KT 04/03 A3043 RMK A01 T00430029  RH  091%=      5-min Rain = 0
KCR2 080838Z 02006KT 04/03 A3043 RMK A01 T00430029  RH  090%=      5-min Rain = 0
KCR2 080839Z 03005KT 04/03 A3043 RMK A01 T00430029  RH  090%=      5-min Rain = 0
KCR2 080840Z 02004KT 04/03 A3043 RMK A01 T00430029  RH  090%=      5-min Rain = 0
KCR2 080841Z 03005KT 04/03 A3043 RMK A01 T00430029  RH  091%=      5-min Rain = 0
KCR2 080842Z 03006KT 04/03 A3043 RMK A01 T00430030  RH  091%=      5-min Rain = 0
KCR2 080843Z 04007KT 04/03 A3043 RMK A01 T00430030  RH  091%=      5-min Rain = 0
KCR2 080844Z 03006KT 04/03 A3043 RMK A01 T00430029  RH  091%=      5-min Rain = 0
KCR2 080845Z 03005KT 04/03 A3043 RMK A01 T00420029  RH  091%=      5-min Rain = 0
KCR2 080846Z 03005KT 04/03 A3043 RMK A01 T00420030  RH  091%=      5-min Rain = 0
KCR2 080847Z 03005KT 04/03 A3043 RMK A01 T00430030  RH  092%=      5-min Rain = 0
KCR2 080848Z 02006KT 04/03 A3043 RMK A01 T00430030  RH  092%=      5-min Rain = 0
KCR2 080849Z 03005KT 04/03 A3043 RMK A01 T00420031  RH  092%=      5-min Rain = 0
KCR2 080850Z 03007KT 04/03 A3043 RMK A01 T00420031  RH  092%=      5-min Rain = 0
KCR2 080851Z 03007KT 04/03 A3043 RMK A01 T00430031  RH  092%=      5-min Rain = 0
KCR2 080852Z 02006KT 04/03 A3043 RMK A01 T00420031  RH  092%=      5-min Rain = 0
KCR2 080853Z 02005KT 04/03 A3043 RMK A01 T00420031  RH  092%=      5-min Rain = 0
KCR2 080854Z 03005KT 04/03 A3043 RMK A01 T00420031  RH  093%=      5-min Rain = 0
KCR2 080855Z 03006KT 04/03 A3042 RMK A01 T00420031  RH  093%=      5-min Rain = 0
KCR2 080856Z 02005KT 04/03 A3043 RMK A01 T00420031  RH  093%=      5-min Rain = 0
KCR2 080857Z 02005KT 04/03 A3043 RMK A01 T00420031  RH  093%=      5-min Rain = 0
KCR2 080858Z 02006KT 04/03 A3043 RMK A01 T00420031  RH  093%=      5-min Rain = 0
KCR2 080859Z 01005KT 04/03 A3043 RMK A01 T00420031  RH  093%=      5-min Rain = 0
KCR2 080900Z 01005KT 04/03 A3043 RMK A01 T00420032  RH  093%=      5-min Rain = 0
KCR2 080901Z 02006KT 04/03 A3043 RMK A01 T00420032  RH  093%=      5-min Rain = 0
KCR2 080902Z 02006KT 04/03 A3043 RMK A01 T00420032  RH  093%=      5-min Rain = 0
KCR2 080903Z 01005KT 04/03 A3043 RMK A01 T00420032  RH  093%=      5-min Rain = 0
KCR2 080904Z 01006KT 04/03 A3042 RMK A01 T00420032  RH  093%=      5-min Rain = 0
KCR2 080905Z 00004KT 04/03 A3042 RMK A01 T00420032  RH  093%=      5-min Rain = 0
KCR2 080906Z 01004KT 04/03 A3042 RMK A01 T00410031  RH  093%=      5-min Rain = 0
KCR2 080907Z 01004KT 04/03 A3042 RMK A01 T00420032  RH  094%=      5-min Rain = 0
KCR2 080908Z 01006KT 04/03 A3042 RMK A01 T00420032  RH  094%=      5-min Rain = 0
KCR2 080909Z 01006KT 04/03 A3042 RMK A01 T00420033  RH  094%=      5-min Rain = 0
KCR2 080910Z 01005KT 04/03 A3042 RMK A01 T00420032  RH  094%=      5-min Rain = 0
KCR2 080911Z 02005KT 04/03 A3042 RMK A01 T00410032  RH  094%=      5-min Rain = 0
KCR2 080912Z 03006KT 04/03 A3042 RMK A01 T00410032  RH  094%=      5-min Rain = 0
KCR2 080913Z 02006KT 04/03 A3042 RMK A01 T00410032  RH  094%=      5-min Rain = 0
KCR2 080914Z 02008KT 04/03 A3042 RMK A01 T00410032  RH  094%=      5-min Rain = 0
KCR2 080915Z 01007KT 04/03 A3042 RMK A01 T00410032  RH  094%=      5-min Rain = 0
KCR2 080916Z 03006KT 04/03 A3042 RMK A01 T00410031  RH  094%=      5-min Rain = 0
KCR2 080917Z 03007KT 04/03 A3042 RMK A01 T00410031  RH  094%=      5-min Rain = 0
KCR2 080918Z 03006KT 04/03 A3042 RMK A01 T00410032  RH  094%=      5-min Rain = 0
KCR2 080919Z 03006KT 04/03 A3042 RMK A01 T00410032  RH  094%=      5-min Rain = 0
KCR2 080920Z 02006KT 04/03 A3042 RMK A01 T00410032  RH  094%=      5-min Rain = 0
KCR2 080921Z 02005KT 04/03 A3042 RMK A01 T00410032  RH  094%=      5-min Rain = 0
KCR2 080922Z 03006KT 04/03 A3042 RMK A01 T00410032  RH  094%=      5-min Rain = 0
KCR2 080923Z 02006KT 04/03 A3042 RMK A01 T00410032  RH  094%=      5-min Rain = 0
KCR2 080924Z 02006KT 04/03 A3042 RMK A01 T00410032  RH  094%=      5-min Rain = 0
KCR2 080925Z 02005KT 04/03 A3042 RMK A01 T00410032  RH  094%=      5-min Rain = 0
KCR2 080926Z 02005KT 04/03 A3042 RMK A01 T00410032  RH  094%=      5-min Rain = 0
KCR2 080927Z 02005KT 04/03 A3042 RMK A01 T00410032  RH  094%=      5-min Rain = 0
KCR2 080928Z 02006KT 04/03 A3042 RMK A01 T00410033  RH  094%=      5-min Rain = 0
KCR2 080929Z 01006KT 04/03 A3042 RMK A01 T00410032  RH  094%=      5-min Rain = 0
KCR2 080930Z 02006KT 04/03 A3042 RMK A01 T00410032  RH  094%=      5-min Rain = 0
KCR2 080931Z 02005KT 04/03 A3042 RMK A01 T00410032  RH  094%=      5-min Rain = 0
KCR2 080932Z 02004KT 04/03 A3042 RMK A01 T00410033  RH  095%=      5-min Rain = 0
KCR2 080933Z 02005KT 04/03 A3042 RMK A01 T00410033  RH  095%=      5-min Rain = 0
KCR2 080934Z 02006KT 04/03 A3042 RMK A01 T00410033  RH  095%=      5-min Rain = 0
KCR2 080935Z 02006KT 04/03 A3042 RMK A01 T00410033  RH  095%=      5-min Rain = 0
KCR2 080936Z 02005KT 04/03 A3042 RMK A01 T00410033  RH  095%=      5-min Rain = 0
KCR2 080937Z 02005KT 04/03 A3042 RMK A01 T00410033  RH  095%=      5-min Rain = 0
KCR2 080938Z 01004KT 04/03 A3042 RMK A01 T00400033  RH  095%=      5-min Rain = 0
KCR2 080939Z 01003KT 04/03 A3042 RMK A01 T00400033  RH  095%=      5-min Rain = 0
KCR2 080940Z 01004KT 04/03 A3042 RMK A01 T00410033  RH  095%=      5-min Rain = 0
KCR2 080941Z 01004KT 04/03 A3042 RMK A01 T00410034  RH  095%=      5-min Rain = 0
KCR2 080942Z 01004KT 04/03 A3042 RMK A01 T00410033  RH  095%=      5-min Rain = 0
KCR2 080943Z 01006KT 04/03 A3041 RMK A01 T00410034  RH  095%=      5-min Rain = 0
KCR2 080944Z 36005KT 04/03 A3041 RMK A01 T00410034  RH  095%=      5-min Rain = 0
KCR2 080945Z 00004KT 04/03 A3041 RMK A01 T00410034  RH  095%=      5-min Rain = 0
KCR2 080946Z 00004KT 04/03 A3042 RMK A01 T00410034  RH  095%=      5-min Rain = 0
KCR2 080947Z 36005KT 04/03 A3042 RMK A01 T00410033  RH  095%=      5-min Rain = 0
KCR2 080948Z 01004KT 04/03 A3042 RMK A01 T00410034  RH  095%=      5-min Rain = 0
KCR2 080949Z 01005KT 04/03 A3042 RMK A01 T00410034  RH  095%=      5-min Rain = 0
KCR2 080950Z 36004KT 04/03 A3042 RMK A01 T00410034  RH  095%=      5-min Rain = 0
KCR2 080951Z 01004KT 04/03 A3042 RMK A01 T00410034  RH  095%=      5-min Rain = 0
KCR2 080952Z 01005KT 04/03 A3042 RMK A01 T00410034  RH  095%=      5-min Rain = 0
KCR2 080953Z 01005KT 04/03 A3042 RMK A01 T00410034  RH  095%=      5-min Rain = 0
KCR2 080954Z 01005KT 04/03 A3042 RMK A01 T00410034  RH  095%=      5-min Rain = 0
KCR2 080955Z 01004KT 04/03 A3042 RMK A01 T00410034  RH  095%=      5-min Rain = 0
KCR2 080956Z 01004KT 04/03 A3042 RMK A01 T00410034  RH  095%=      5-min Rain = 0
KCR2 080957Z 01005KT 04/03 A3042 RMK A01 T00410034  RH  095%=      5-min Rain = 0
KCR2 080958Z 01004KT 04/03 A3042 RMK A01 T00410034  RH  095%=      5-min Rain = 0
KCR2 080959Z 01004KT 04/03 A3042 RMK A01 T00410034  RH  095%=      5-min Rain = 0
KCR2 081000Z 01004KT 04/03 A3042 RMK A01 T00410034  RH  095%=      5-min Rain = 0
KCR2 081001Z 01003KT 04/03 A3042 RMK A01 T00410034  RH  096%=      5-min Rain = 0
KCR2 081002Z 00003KT 04/03 A3042 RMK A01 T00410034  RH  095%=      5-min Rain = 0
KCR2 081003Z 36003KT 04/03 A3042 RMK A01 T00410034  RH  095%=      5-min Rain = 0
KCR2 081004Z 01003KT 04/03 A3042 RMK A01 T00410034  RH  096%=      5-min Rain = 0
KCR2 081005Z 01003KT 04/04 A3042 RMK A01 T00410035  RH  096%=      5-min Rain = 0
KCR2 081006Z 00003KT 04/04 A3042 RMK A01 T00410035  RH  096%=      5-min Rain = 0
KCR2 081007Z 01003KT 04/04 A3042 RMK A01 T00420035  RH  096%=      5-min Rain = 0
KCR2 081008Z 02004KT 04/04 A3042 RMK A01 T00420035  RH  096%=      5-min Rain = 0
KCR2 081009Z 01003KT 04/04 A3042 RMK A01 T00420035  RH  096%=      5-min Rain = 0
KCR2 081010Z 35003KT 04/04 A3042 RMK A01 T00410035  RH  096%=      5-min Rain = 0
KCR2 081011Z 36004KT 04/04 A3042 RMK A01 T00420036  RH  096%=      5-min Rain = 0
KCR2 081012Z 34003KT 04/04 A3042 RMK A01 T00420036  RH  096%=      5-min Rain = 0
KCR2 081013Z 34005KT 04/04 A3042 RMK A01 T00420036  RH  096%=      5-min Rain = 0
KCR2 081014Z 35004KT 04/04 A3042 RMK A01 T00420036  RH  096%=      5-min Rain = 0
KCR2 081015Z 35004KT 04/04 A3042 RMK A01 T00420036  RH  096%=      5-min Rain = 0
KCR2 081016Z 36005KT 04/04 A3042 RMK A01 T00420036  RH  096%=      5-min Rain = 0
KCR2 081017Z 34004KT 04/04 A3042 RMK A01 T00420036  RH  096%=      5-min Rain = 0
KCR2 081018Z 35004KT 04/04 A3042 RMK A01 T00420036  RH  096%=      5-min Rain = 0
KCR2 081019Z 36004KT 04/04 A3042 RMK A01 T00420036  RH  096%=      5-min Rain = 0
KCR2 081020Z 35003KT 04/04 A3042 RMK A01 T00420036  RH  096%=      5-min Rain = 0
KCR2 081021Z 34004KT 04/04 A3042 RMK A01 T00420036  RH  096%=      5-min Rain = 0
KCR2 081022Z 36004KT 04/04 A3042 RMK A01 T00420036  RH  096%=      5-min Rain = 0
KCR2 081023Z 35004KT 04/04 A3042 RMK A01 T00420037  RH  096%=      5-min Rain = 0
KCR2 081024Z 36004KT 04/04 A3042 RMK A01 T00420037  RH  096%=      5-min Rain = 0
KCR2 081025Z 01004KT 04/04 A3042 RMK A01 T00420036  RH  096%=      5-min Rain = 0
KCR2 081026Z 00004KT 04/04 A3042 RMK A01 T00420036  RH  096%=      5-min Rain = 0
KCR2 081027Z 00004KT 04/04 A3042 RMK A01 T00410036  RH  096%=      5-min Rain = 0
KCR2 081028Z 01004KT 04/04 A3042 RMK A01 T00410036  RH  096%=      5-min Rain = 0
KCR2 081029Z 36004KT 04/04 A3042 RMK A01 T00410036  RH  096%=      5-min Rain = 0
KCR2 081030Z 36005KT 04/04 A3042 RMK A01 T00410035  RH  096%=      5-min Rain = 0
KCR2 081031Z 35005KT 04/04 A3042 RMK A01 T00410036  RH  096%=      5-min Rain = 0
KCR2 081032Z 36005KT 04/04 A3042 RMK A01 T00410036  RH  096%=      5-min Rain = 0
KCR2 081033Z 35005KT 04/04 A3042 RMK A01 T00410036  RH  096%=      5-min Rain = 0
KCR2 081034Z 36005KT 04/04 A3042 RMK A01 T00420036  RH  096%=      5-min Rain = 0
KCR2 081035Z 01005KT 04/04 A3042 RMK A01 T00420036  RH  096%=      5-min Rain = 0
KCR2 081036Z 01004KT 04/04 A3042 RMK A01 T00420036  RH  096%=      5-min Rain = 0
KCR2 081037Z 01004KT 04/04 A3042 RMK A01 T00420036  RH  096%=      5-min Rain = 0
KCR2 081038Z 01004KT 04/04 A3042 RMK A01 T00420036  RH  096%=      5-min Rain = 0
KCR2 081039Z 01005KT 04/04 A3041 RMK A01 T00420037  RH  096%=      5-min Rain = 0
KCR2 081040Z 00005KT 04/04 A3041 RMK A01 T00420037  RH  096%=      5-min Rain = 0
KCR2 081041Z 00005KT 04/04 A3041 RMK A01 T00420036  RH  096%=      5-min Rain = 0
KCR2 081042Z 00005KT 04/04 A3042 RMK A01 T00420036  RH  096%=      5-min Rain = 0
KCR2 081043Z 00006KT 04/04 A3042 RMK A01 T00410036  RH  096%=      5-min Rain = 0
KCR2 081044Z 36004KT 04/04 A3042 RMK A01 T00410036  RH  096%=      5-min Rain = 0
KCR2 081045Z 00005KT 04/04 A3042 RMK A01 T00410036  RH  096%=      5-min Rain = 0
KCR2 081046Z 01004KT 04/04 A3042 RMK A01 T00410036  RH  096%=      5-min Rain = 0
KCR2 081047Z 35003KT 04/04 A3042 RMK A01 T00420036  RH  096%=      5-min Rain = 0
KCR2 081048Z 36004KT 04/04 A3042 RMK A01 T00420037  RH  096%=      5-min Rain = 0
KCR2 081049Z 01006KT 04/04 A3042 RMK A01 T00420037  RH  097%=      5-min Rain = 0
KCR2 081050Z 01005KT 04/04 A3041 RMK A01 T00420037  RH  096%=      5-min Rain = 0
KCR2 081051Z 01005KT 04/04 A3041 RMK A01 T00420037  RH  096%=      5-min Rain = 0
KCR2 081052Z 02005KT 04/04 A3042 RMK A01 T00420036  RH  096%=      5-min Rain = 0
KCR2 081053Z 01005KT 04/04 A3042 RMK A01 T00420036  RH  096%=      5-min Rain = 0
KCR2 081054Z 01004KT 04/04 A3042 RMK A01 T00410036  RH  096%=      5-min Rain = 0
KCR2 081055Z 01004KT 04/04 A3042 RMK A01 T00420036  RH  096%=      5-min Rain = 0
KCR2 081056Z 01003KT 04/04 A3042 RMK A01 T00420037  RH  096%=      5-min Rain = 0
KCR2 081057Z 01002KT 04/04 A3042 RMK A01 T00420037  RH  096%=      5-min Rain = 0
KCR2 081058Z 01004KT 04/04 A3041 RMK A01 T00420037  RH  096%=      5-min Rain = 0
KCR2 081059Z 01004KT 04/04 A3042 RMK A01 T00420037  RH  096%=      5-min Rain = 0
KCR2 081100Z 01004KT 04/04 A3042 RMK A01 T00420037  RH  096%=      5-min Rain = 0
KCR2 081101Z 36005KT 04/04 A3042 RMK A01 T00420037  RH  096%=      5-min Rain = 0
KCR2 081102Z 36004KT 04/04 A3042 RMK A01 T00420037  RH  096%=      5-min Rain = 0
KCR2 081103Z 36003KT 04/04 A3042 RMK A01 T00420037  RH  096%=      5-min Rain = 0
KCR2 081104Z 35004KT 04/04 A3042 RMK A01 T00420037  RH  096%=      5-min Rain = 0
KCR2 081105Z 35004KT 04/04 A3042 RMK A01 T00420037  RH  096%=      5-min Rain = 0
KCR2 081106Z 00004KT 04/04 A3042 RMK A01 T00420037  RH  096%=      5-min Rain = 0
KCR2 081107Z 01004KT 04/04 A3042 RMK A01 T00420037  RH  096%=      5-min Rain = 0
KCR2 081108Z 35003KT 04/04 A3042 RMK A01 T00420037  RH  096%=      5-min Rain = 0
KCR2 081109Z 35003KT 04/04 A3042 RMK A01 T00420037  RH  096%=      5-min Rain = 0
KCR2 081110Z 35004KT 04/04 A3042 RMK A01 T00420037  RH  097%=      5-min Rain = 0
KCR2 081111Z 00004KT 04/04 A3042 RMK A01 T00430038  RH  097%=      5-min Rain = 0
KCR2 081112Z 35004KT 04/04 A3042 RMK A01 T00430038  RH  097%=      5-min Rain = 0
KCR2 081113Z 36005KT 04/04 A3042 RMK A01 T00430038  RH  097%=      5-min Rain = 0
KCR2 081114Z 00005KT 04/04 A3042 RMK A01 T00430038  RH  097%=      5-min Rain = 0
KCR2 081115Z 36005KT 04/04 A3042 RMK A01 T00430038  RH  097%=      5-min Rain = 0
KCR2 081116Z 00005KT 04/04 A3042 RMK A01 T00420037  RH  097%=      5-min Rain = 0
KCR2 081117Z 00004KT 04/04 A3042 RMK A01 T00420037  RH  097%=      5-min Rain = 0
KCR2 081118Z 36004KT 04/04 A3042 RMK A01 T00420038  RH  097%=      5-min Rain = 0
KCR2 081119Z 36006KT 04/04 A3042 RMK A01 T00430038  RH  097%=      5-min Rain = 0
KCR2 081120Z 00005KT 04/04 A3042 RMK A01 T00430038  RH  097%=      5-min Rain = 0
KCR2 081121Z 00004KT 04/04 A3042 RMK A01 T00430038  RH  097%=      5-min Rain = 0
KCR2 081122Z 01003KT 04/04 A3042 RMK A01 T00430038  RH  097%=      5-min Rain = 0
KCR2 081123Z 01003KT 04/04 A3042 RMK A01 T00430038  RH  097%=      5-min Rain = 0
KCR2 081124Z 01003KT 04/04 A3042 RMK A01 T00430038  RH  097%=      5-min Rain = 0
KCR2 081125Z 01003KT 04/04 A3042 RMK A01 T00430038  RH  097%=      5-min Rain = 0
KCR2 081126Z 01003KT 04/04 A3042 RMK A01 T00430039  RH  097%=      5-min Rain = 0
KCR2 081127Z 01003KT 04/04 A3042 RMK A01 T00430039  RH  097%=      5-min Rain = 0
KCR2 081128Z 02004KT 04/04 A3042 RMK A01 T00430039  RH  097%=      5-min Rain = 0
KCR2 081129Z 02005KT 04/04 A3042 RMK A01 T00430038  RH  097%=      5-min Rain = 0
KCR2 081130Z 01004KT 04/04 A3042 RMK A01 T00420038  RH  097%=      5-min Rain = 0
KCR2 081131Z 01004KT 04/04 A3042 RMK A01 T00420038  RH  097%=      5-min Rain = 0
KCR2 081132Z 36004KT 04/04 A3042 RMK A01 T00430038  RH  097%=      5-min Rain = 0
KCR2 081133Z 35003KT 04/04 A3042 RMK A01 T00430039  RH  097%=      5-min Rain = 0
KCR2 081134Z 35005KT 04/04 A3042 RMK A01 T00430039  RH  097%=      5-min Rain = 0
KCR2 081135Z 35004KT 04/04 A3042 RMK A01 T00430039  RH  097%=      5-min Rain = 0
KCR2 081136Z 35005KT 04/04 A3042 RMK A01 T00430039  RH  097%=      5-min Rain = 0
KCR2 081137Z 34003KT 04/04 A3042 RMK A01 T00430039  RH  097%=      5-min Rain = 0
KCR2 081138Z 35004KT 04/04 A3042 RMK A01 T00430039  RH  097%=      5-min Rain = 0
KCR2 081139Z 34004KT 04/04 A3042 RMK A01 T00430039  RH  097%=      5-min Rain = 0
KCR2 081140Z 35005KT 04/04 A3042 RMK A01 T00430039  RH  097%=      5-min Rain = 0
KCR2 081141Z 35004KT 04/04 A3042 RMK A01 T00430039  RH  097%=      5-min Rain = 0.01
KCR2 081142Z 00005KT 04/04 A3042 RMK A01 T00430039  RH  097%=      5-min Rain = 0
KCR2 081143Z 35005KT 04/04 A3042 RMK A01 T00430039  RH  097%=      5-min Rain = 0
KCR2 081144Z 35005KT 04/04 A3042 RMK A01 T00430039  RH  097%=      5-min Rain = 0
KCR2 081145Z 36006KT 04/04 A3042 RMK A01 T00420038  RH  097%=      5-min Rain = 0
KCR2 081146Z 35004KT 04/04 A3042 RMK A01 T00420038  RH  097%=      5-min Rain = 0
KCR2 081147Z 35005KT 04/04 A3042 RMK A01 T00420038  RH  097%=      5-min Rain = 0
KCR2 081148Z 35005KT 04/04 A3042 RMK A01 T00420038  RH  097%=      5-min Rain = 0
KCR2 081149Z 35006KT 04/04 A3042 RMK A01 T00420038  RH  097%=      5-min Rain = 0
KCR2 081150Z 35005KT 04/04 A3042 RMK A01 T00420038  RH  097%=      5-min Rain = 0
KCR2 081151Z 36004KT 04/04 A3042 RMK A01 T00420038  RH  097%=      5-min Rain = 0
KCR2 081152Z 35005KT 04/04 A3042 RMK A01 T00420038  RH  097%=      5-min Rain = 0
KCR2 081153Z 35005KT 04/04 A3042 RMK A01 T00420038  RH  097%=      5-min Rain = 0
KCR2 081154Z 35004KT 04/04 A3042 RMK A01 T00420038  RH  097%=      5-min Rain = 0
KCR2 081155Z 35004KT 04/04 A3042 RMK A01 T00420038  RH  097%=      5-min Rain = 0
KCR2 081156Z 36004KT 04/04 A3042 RMK A01 T00420038  RH  097%=      5-min Rain = 0
KCR2 081157Z 35004KT 04/04 A3043 RMK A01 T00420038  RH  097%=      5-min Rain = 0
KCR2 081158Z 35003KT 04/04 A3043 RMK A01 T00420038  RH  097%=      5-min Rain = 0
KCR2 081159Z 34003KT 04/04 A3043 RMK A01 T00420038  RH  097%=      5-min Rain = 0
KCR2 081200Z 34004KT 04/04 A3043 RMK A01 T00430039  RH  097%=      5-min Rain = 0
KCR2 081201Z 34004KT 04/04 A3043 RMK A01 T00430039  RH  097%=      5-min Rain = 0
KCR2 081202Z 34005KT 04/04 A3043 RMK A01 T00430039  RH  097%=      5-min Rain = 0
KCR2 081203Z 35005KT 04/04 A3043 RMK A01 T00430039  RH  097%=      5-min Rain = 0
KCR2 081204Z 35005KT 04/04 A3043 RMK A01 T00420039  RH  097%=      5-min Rain = 0
KCR2 081205Z 34004KT 04/04 A3043 RMK A01 T00420039  RH  097%=      5-min Rain = 0
KCR2 081206Z 35005KT 04/04 A3043 RMK A01 T00420039  RH  097%=      5-min Rain = 0
KCR2 081207Z 35005KT 04/04 A3043 RMK A01 T00420039  RH  097%=      5-min Rain = 0
KCR2 081208Z 34004KT 04/04 A3043 RMK A01 T00420038  RH  097%=      5-min Rain = 0
KCR2 081209Z 34004KT 04/04 A3043 RMK A01 T00420038  RH  097%=      5-min Rain = 0
KCR2 081210Z 34005KT 04/04 A3043 RMK A01 T00420038  RH  097%=      5-min Rain = 0
KCR2 081211Z 34004KT 04/04 A3043 RMK A01 T00420038  RH  097%=      5-min Rain = 0
KCR2 081212Z 35005KT 04/04 A3043 RMK A01 T00420038  RH  097%=      5-min Rain = 0
KCR2 081213Z 35005KT 04/04 A3043 RMK A01 T00420039  RH  098%=      5-min Rain = 0
KCR2 081214Z 35005KT 04/04 A3043 RMK A01 T00430039  RH  097%=      5-min Rain = 0
KCR2 081215Z 35005KT 04/04 A3043 RMK A01 T00420039  RH  097%=      5-min Rain = 0
KCR2 081216Z 34004KT 04/04 A3043 RMK A01 T00420039  RH  097%=      5-min Rain = 0
KCR2 081217Z 34005KT 04/04 A3043 RMK A01 T00420039  RH  098%=      5-min Rain = 0
KCR2 081218Z 35004KT 04/04 A3043 RMK A01 T00430039  RH  098%=      5-min Rain = 0
KCR2 081219Z 35006KT 04/04 A3043 RMK A01 T00430039  RH  098%=      5-min Rain = 0
KCR2 081220Z 35006KT 04/04 A3043 RMK A01 T00430039  RH  097%=      5-min Rain = 0
KCR2 081221Z 35005KT 04/04 A3043 RMK A01 T00420039  RH  097%=      5-min Rain = 0
KCR2 081222Z 34004KT 04/04 A3043 RMK A01 T00420039  RH  097%=      5-min Rain = 0
KCR2 081223Z 35004KT 04/04 A3043 RMK A01 T00430039  RH  098%=      5-min Rain = 0
KCR2 081224Z 35004KT 04/04 A3043 RMK A01 T00430039  RH  098%=      5-min Rain = 0
KCR2 081225Z 35004KT 04/04 A3043 RMK A01 T00430039  RH  098%=      5-min Rain = 0
KCR2 081226Z 35004KT 04/04 A3043 RMK A01 T00430039  RH  098%=      5-min Rain = 0
KCR2 081227Z 34004KT 04/04 A3043 RMK A01 T00420039  RH  098%=      5-min Rain = 0
KCR2 081228Z 35004KT 04/04 A3043 RMK A01 T00420039  RH  098%=      5-min Rain = 0
KCR2 081229Z 35004KT 04/04 A3043 RMK A01 T00430039  RH  098%=      5-min Rain = 0
KCR2 081230Z 35003KT 04/04 A3043 RMK A01 T00420039  RH  098%=      5-min Rain = 0
KCR2 081231Z 35004KT 04/04 A3043 RMK A01 T00430039  RH  098%=      5-min Rain = 0
KCR2 081232Z 35004KT 04/04 A3043 RMK A01 T00430039  RH  098%=      5-min Rain = 0
KCR2 081233Z 35005KT 04/04 A3043 RMK A01 T00430039  RH  098%=      5-min Rain = 0
KCR2 081234Z 35004KT 04/04 A3043 RMK A01 T00420039  RH  098%=      5-min Rain = 0
KCR2 081235Z 36004KT 04/04 A3043 RMK A01 T00430039  RH  098%=      5-min Rain = 0
KCR2 081236Z 35004KT 04/04 A3043 RMK A01 T00430039  RH  098%=      5-min Rain = 0
KCR2 081237Z 36003KT 04/04 A3043 RMK A01 T00420039  RH  098%=      5-min Rain = 0
KCR2 081238Z 35003KT 04/04 A3043 RMK A01 T00430039  RH  098%=      5-min Rain = 0
KCR2 081239Z 35003KT 04/04 A3043 RMK A01 T00430039  RH  098%=      5-min Rain = 0
KCR2 081240Z 01003KT 04/04 A3043 RMK A01 T00430039  RH  098%=      5-min Rain = 0
KCR2 081241Z 35003KT 04/04 A3043 RMK A01 T00430040  RH  098%=      5-min Rain = 0
KCR2 081242Z 00003KT 04/04 A3043 RMK A01 T00430040  RH  098%=      5-min Rain = 0
KCR2 081243Z 00003KT 04/04 A3043 RMK A01 T00430040  RH  098%=      5-min Rain = 0
KCR2 081244Z 36004KT 04/04 A3043 RMK A01 T00430040  RH  098%=      5-min Rain = 0
KCR2 081245Z 36004KT 04/04 A3043 RMK A01 T00430039  RH  098%=      5-min Rain = 0
KCR2 081246Z 35003KT 04/04 A3043 RMK A01 T00430040  RH  098%=      5-min Rain = 0
KCR2 081247Z 35004KT 04/04 A3043 RMK A01 T00430039  RH  098%=      5-min Rain = 0
KCR2 081248Z 36004KT 04/04 A3043 RMK A01 T00430039  RH  098%=      5-min Rain = 0
KCR2 081249Z 35003KT 04/04 A3043 RMK A01 T00430040  RH  098%=      5-min Rain = 0
KCR2 081250Z 35003KT 04/04 A3043 RMK A01 T00430040  RH  098%=      5-min Rain = 0
KCR2 081251Z 34004KT 04/04 A3043 RMK A01 T00430040  RH  098%=      5-min Rain = 0
KCR2 081252Z 35004KT 04/04 A3043 RMK A01 T00430039  RH  098%=      5-min Rain = 0
KCR2 081253Z 34004KT 04/04 A3043 RMK A01 T00430039  RH  098%=      5-min Rain = 0
KCR2 081254Z 35004KT 04/04 A3043 RMK A01 T00420039  RH  098%=      5-min Rain = 0
KCR2 081255Z 35004KT 04/04 A3043 RMK A01 T00420039  RH  098%=      5-min Rain = 0
KCR2 081256Z 34003KT 04/04 A3043 RMK A01 T00420039  RH  098%=      5-min Rain = 0
KCR2 081257Z 34003KT 04/04 A3043 RMK A01 T00420039  RH  098%=      5-min Rain = 0
KCR2 081258Z 33004KT 04/04 A3043 RMK A01 T00430040  RH  098%=      5-min Rain = 0
KCR2 081259Z 34003KT 04/04 A3043 RMK A01 T00420039  RH  098%=      5-min Rain = 0
KCR2 081300Z 34003KT 04/04 A3043 RMK A01 T00430039  RH  098%=      5-min Rain = 0
KCR2 081301Z 35003KT 04/04 A3043 RMK A01 T00430040  RH  098%=      5-min Rain = 0
KCR2 081302Z 35003KT 04/04 A3043 RMK A01 T00430040  RH  098%=      5-min Rain = 0
KCR2 081303Z 35003KT 04/04 A3043 RMK A01 T00430039  RH  098%=      5-min Rain = 0
KCR2 081304Z 35004KT 04/04 A3043 RMK A01 T00430040  RH  098%=      5-min Rain = 0
KCR2 081305Z 36003KT 04/04 A3043 RMK A01 T00430040  RH  098%=      5-min Rain = 0
KCR2 081306Z 35003KT 04/04 A3043 RMK A01 T00430040  RH  098%=      5-min Rain = 0
KCR2 081307Z 36003KT 04/04 A3043 RMK A01 T00430040  RH  098%=      5-min Rain = 0
KCR2 081308Z 35003KT 04/04 A3043 RMK A01 T00430040  RH  098%=      5-min Rain = 0
KCR2 081309Z 34003KT 04/04 A3043 RMK A01 T00430040  RH  098%=      5-min Rain = 0
KCR2 081310Z 34003KT 04/04 A3043 RMK A01 T00430040  RH  098%=      5-min Rain = 0
KCR2 081311Z 34003KT 04/04 A3043 RMK A01 T00430040  RH  098%=      5-min Rain = 0
KCR2 081312Z 33002KT 04/04 A3043 RMK A01 T00430040  RH  098%=      5-min Rain = 0
KCR2 081313Z 32002KT 04/04 A3043 RMK A01 T00430040  RH  098%=      5-min Rain = 0
KCR2 081314Z 31002KT 04/04 A3043 RMK A01 T00430040  RH  098%=      5-min Rain = 0
KCR2 081315Z 32003KT 04/04 A3043 RMK A01 T00440040  RH  098%=      5-min Rain = 0
KCR2 081316Z 33003KT 04/04 A3043 RMK A01 T00430040  RH  098%=      5-min Rain = 0
KCR2 081317Z 33003KT 04/04 A3043 RMK A01 T00430040  RH  098%=      5-min Rain = 0
KCR2 081318Z 33003KT 04/04 A3043 RMK A01 T00430039  RH  098%=      5-min Rain = 0
KCR2 081319Z 33003KT 04/04 A3043 RMK A01 T00430040  RH  098%=      5-min Rain = 0
KCR2 081320Z 33002KT 04/04 A3043 RMK A01 T00430040  RH  098%=      5-min Rain = 0
KCR2 081321Z 33002KT 04/04 A3043 RMK A01 T00430040  RH  098%=      5-min Rain = 0
KCR2 081322Z 32003KT 04/04 A3043 RMK A01 T00430040  RH  098%=      5-min Rain = 0
KCR2 081323Z 33003KT 04/04 A3043 RMK A01 T00440040  RH  098%=      5-min Rain = 0
KCR2 081324Z 33004KT 04/04 A3043 RMK A01 T00440040  RH  098%=      5-min Rain = 0
KCR2 081325Z 33003KT 04/04 A3043 RMK A01 T00440040  RH  098%=      5-min Rain = 0
KCR2 081326Z 33003KT 04/04 A3043 RMK A01 T00440040  RH  098%=      5-min Rain = 0
KCR2 081327Z 34002KT 04/04 A3043 RMK A01 T00430040  RH  098%=      5-min Rain = 0
KCR2 081328Z 33002KT 04/04 A3043 RMK A01 T00430040  RH  098%=      5-min Rain = 0
KCR2 081329Z 33002KT 04/04 A3043 RMK A01 T00440040  RH  098%=      5-min Rain = 0
KCR2 081330Z 33002KT 04/04 A3043 RMK A01 T00440040  RH  098%=      5-min Rain = 0
KCR2 081331Z 34002KT 04/04 A3044 RMK A01 T00440040  RH  098%=      5-min Rain = 0
KCR2 081332Z 34002KT 05/04 A3044 RMK A01 T00450041  RH  098%=      5-min Rain = 0
KCR2 081333Z 34002KT 04/04 A3044 RMK A01 T00440041  RH  098%=      5-min Rain = 0
KCR2 081334Z 34002KT 04/04 A3044 RMK A01 T00440041  RH  098%=      5-min Rain = 0
KCR2 081335Z 34002KT 04/04 A3044 RMK A01 T00440041  RH  098%=      5-min Rain = 0
KCR2 081336Z 33002KT 04/04 A3044 RMK A01 T00440041  RH  098%=      5-min Rain = 0
KCR2 081337Z 33002KT 05/04 A3044 RMK A01 T00450041  RH  098%=      5-min Rain = 0
KCR2 081338Z 33003KT 05/04 A3044 RMK A01 T00450042  RH  098%=      5-min Rain = 0
KCR2 081339Z 32002KT 05/04 A3044 RMK A01 T00450041  RH  098%=      5-min Rain = 0
KCR2 081340Z 33002KT 05/04 A3044 RMK A01 T00450042  RH  098%=      5-min Rain = 0
KCR2 081341Z 34003KT 05/04 A3044 RMK A01 T00450041  RH  098%=      5-min Rain = 0
KCR2 081342Z 33002KT 05/04 A3044 RMK A01 T00450042  RH  098%=      5-min Rain = 0
KCR2 081343Z 33002KT 05/04 A3044 RMK A01 T00450041  RH  098%=      5-min Rain = 0
KCR2 081344Z 32001KT 05/04 A3044 RMK A01 T00450042  RH  098%=      5-min Rain = 0
KCR2 081345Z 32002KT 05/04 A3045 RMK A01 T00460042  RH  098%=      5-min Rain = 0
KCR2 081346Z 31002KT 05/04 A3045 RMK A01 T00450042  RH  098%=      5-min Rain = 0
KCR2 081347Z 32002KT 05/04 A3045 RMK A01 T00450042  RH  098%=      5-min Rain = 0
KCR2 081348Z 31003KT 05/04 A3045 RMK A01 T00460042  RH  098%=      5-min Rain = 0
KCR2 081349Z 32003KT 05/04 A3045 RMK A01 T00460043  RH  098%=      5-min Rain = 0
KCR2 081350Z 34002KT 05/04 A3045 RMK A01 T00450042  RH  098%=      5-min Rain = 0
KCR2 081351Z 34002KT 05/04 A3045 RMK A01 T00450042  RH  098%=      5-min Rain = 0
KCR2 081352Z 34001KT 05/04 A3045 RMK A01 T00450042  RH  098%=      5-min Rain = 0
KCR2 081353Z 32002KT 05/04 A3045 RMK A01 T00450042  RH  098%=      5-min Rain = 0
KCR2 081354Z 31003KT 05/04 A3045 RMK A01 T00450042  RH  098%=      5-min Rain = 0
KCR2 081355Z 32004KT 05/04 A3045 RMK A01 T00450042  RH  098%=      5-min Rain = 0
KCR2 081356Z 33003KT 05/04 A3045 RMK A01 T00450042  RH  098%=      5-min Rain = 0
KCR2 081357Z 34002KT 05/04 A3045 RMK A01 T00450041  RH  098%=      5-min Rain = 0
KCR2 081358Z 34003KT 05/04 A3045 RMK A01 T00450041  RH  098%=      5-min Rain = 0
KCR2 081359Z 32002KT 05/04 A3045 RMK A01 T00450042  RH  098%=      5-min Rain = 0
KCR2 081400Z 33002KT 05/04 A3045 RMK A01 T00450042  RH  098%=      5-min Rain = 0
KCR2 081401Z 34003KT 05/04 A3045 RMK A01 T00460042  RH  098%=      5-min Rain = 0
KCR2 081402Z 34002KT 05/04 A3045 RMK A01 T00450042  RH  098%=      5-min Rain = 0
KCR2 081403Z 35003KT 05/04 A3045 RMK A01 T00450041  RH  098%=      5-min Rain = 0
KCR2 081404Z 34003KT 04/04 A3045 RMK A01 T00440041  RH  098%=      5-min Rain = 0
KCR2 081405Z 34003KT 04/04 A3045 RMK A01 T00440041  RH  098%=      5-min Rain = 0
KCR2 081406Z 34003KT 04/04 A3045 RMK A01 T00440041  RH  098%=      5-min Rain = 0
KCR2 081407Z 35003KT 05/04 A3045 RMK A01 T00450041  RH  098%=      5-min Rain = 0
KCR2 081408Z 36003KT 05/04 A3045 RMK A01 T00450041  RH  097%=      5-min Rain = 0
KCR2 081409Z 00003KT 04/04 A3045 RMK A01 T00440041  RH  097%=      5-min Rain = 0
KCR2 081410Z 34003KT 05/04 A3045 RMK A01 T00450041  RH  097%=      5-min Rain = 0
KCR2 081411Z 35003KT 05/04 A3045 RMK A01 T00450041  RH  097%=      5-min Rain = 0
KCR2 081412Z 35003KT 05/04 A3045 RMK A01 T00450041  RH  097%=      5-min Rain = 0
KCR2 081413Z 34003KT 05/04 A3045 RMK A01 T00450041  RH  097%=      5-min Rain = 0
KCR2 081414Z 34003KT 05/04 A3045 RMK A01 T00450041  RH  097%=      5-min Rain = 0
KCR2 081415Z 35003KT 05/04 A3045 RMK A01 T00450041  RH  097%=      5-min Rain = 0
KCR2 081416Z 35003KT 05/04 A3045 RMK A01 T00460042  RH  097%=      5-min Rain = 0
KCR2 081417Z 34003KT 05/04 A3045 RMK A01 T00460042  RH  097%=      5-min Rain = 0
KCR2 081418Z 34003KT 05/04 A3045 RMK A01 T00460041  RH  097%=      5-min Rain = 0
KCR2 081419Z 34003KT 05/04 A3045 RMK A01 T00450041  RH  097%=      5-min Rain = 0
KCR2 081420Z 34003KT 05/04 A3045 RMK A01 T00450041  RH  097%=      5-min Rain = 0
KCR2 081421Z 34003KT 05/04 A3045 RMK A01 T00450041  RH  097%=      5-min Rain = 0
KCR2 081422Z 35002KT 05/04 A3045 RMK A01 T00460042  RH  097%=      5-min Rain = 0
KCR2 081423Z 36003KT 05/04 A3045 RMK A01 T00460042  RH  097%=      5-min Rain = 0
KCR2 081424Z 00004KT 05/04 A3045 RMK A01 T00470042  RH  097%=      5-min Rain = 0
KCR2 081425Z 36004KT 05/04 A3045 RMK A01 T00460042  RH  097%=      5-min Rain = 0
KCR2 081426Z 00004KT 05/04 A3045 RMK A01 T00460042  RH  097%=      5-min Rain = 0
KCR2 081427Z 01004KT 05/04 A3045 RMK A01 T00460042  RH  097%=      5-min Rain = 0
KCR2 081428Z 00004KT 05/04 A3045 RMK A01 T00460041  RH  097%=      5-min Rain = 0
KCR2 081429Z 01003KT 05/04 A3045 RMK A01 T00470042  RH  097%=      5-min Rain = 0
KCR2 081430Z 01003KT 05/04 A3045 RMK A01 T00470042  RH  097%=      5-min Rain = 0
KCR2 081431Z 01003KT 05/04 A3045 RMK A01 T00470043  RH  097%=      5-min Rain = 0
KCR2 081432Z 36003KT 05/04 A3045 RMK A01 T00470042  RH  097%=      5-min Rain = 0
KCR2 081433Z 35002KT 05/04 A3045 RMK A01 T00470042  RH  097%=      5-min Rain = 0
KCR2 081434Z 00003KT 05/04 A3045 RMK A01 T00470042  RH  097%=      5-min Rain = 0
KCR2 081435Z 35003KT 05/04 A3045 RMK A01 T00470042  RH  097%=      5-min Rain = 0
KCR2 081436Z 34002KT 05/04 A3045 RMK A01 T00470042  RH  097%=      5-min Rain = 0
KCR2 081437Z 35002KT 05/04 A3045 RMK A01 T00470042  RH  097%=      5-min Rain = 0
KCR2 081438Z 35002KT 05/04 A3044 RMK A01 T00480043  RH  097%=      5-min Rain = 0
KCR2 081439Z 35002KT 05/04 A3044 RMK A01 T00480043  RH  097%=      5-min Rain = 0
KCR2 081440Z 36001KT 05/04 A3044 RMK A01 T00480044  RH  097%=      5-min Rain = 0
KCR2 081441Z 34001KT 05/05 A3044 RMK A01 T00490045  RH  097%=      5-min Rain = 0
KCR2 081442Z 35001KT 05/05 A3044 RMK A01 T00490045  RH  097%=      5-min Rain = 0
KCR2 081443Z 33002KT 05/04 A3045 RMK A01 T00490044  RH  097%=      5-min Rain = 0
KCR2 081444Z 32003KT 05/04 A3045 RMK A01 T00490044  RH  097%=      5-min Rain = 0
KCR2 081445Z 33002KT 05/04 A3045 RMK A01 T00480043  RH  097%=      5-min Rain = 0
KCR2 081446Z 34003KT 05/04 A3045 RMK A01 T00480044  RH  097%=      5-min Rain = 0
KCR2 081447Z 35003KT 05/04 A3045 RMK A01 T00490044  RH  097%=      5-min Rain = 0
KCR2 081448Z 35003KT 05/04 A3045 RMK A01 T00490044  RH  097%=      5-min Rain = 0
KCR2 081449Z 34003KT 05/04 A3045 RMK A01 T00490044  RH  097%=      5-min Rain = 0
KCR2 081450Z 34004KT 05/04 A3045 RMK A01 T00490044  RH  096%=      5-min Rain = 0
KCR2 081451Z 35003KT 05/04 A3045 RMK A01 T00490043  RH  096%=      5-min Rain = 0
KCR2 081452Z 35003KT 05/04 A3045 RMK A01 T00480043  RH  096%=      5-min Rain = 0
KCR2 081453Z 35003KT 05/04 A3045 RMK A01 T00480042  RH  096%=      5-min Rain = 0
KCR2 081454Z 35003KT 05/04 A3045 RMK A01 T00480042  RH  096%=      5-min Rain = 0
KCR2 081455Z 36002KT 05/04 A3045 RMK A01 T00480043  RH  096%=      5-min Rain = 0
KCR2 081456Z 01002KT 05/04 A3045 RMK A01 T00480043  RH  096%=      5-min Rain = 0
KCR2 081457Z 00002KT 05/04 A3045 RMK A01 T00490043  RH  096%=      5-min Rain = 0
KCR2 081458Z 36001KT 05/04 A3045 RMK A01 T00490044  RH  096%=      5-min Rain = 0
KCR2 081459Z 32002KT 05/04 A3045 RMK A01 T00500044  RH  096%=      5-min Rain = 0
KCR2 081500Z 32002KT 05/05 A3045 RMK A01 T00500045  RH  096%=      5-min Rain = 0
KCR2 081501Z 32002KT 05/04 A3045 RMK A01 T00500043  RH  096%=      5-min Rain = 0
KCR2 081502Z 34002KT 05/04 A3045 RMK A01 T00490043  RH  095%=      5-min Rain = 0
KCR2 081503Z 35003KT 05/04 A3045 RMK A01 T00510044  RH  096%=      5-min Rain = 0
KCR2 081504Z 34003KT 05/04 A3045 RMK A01 T00500043  RH  095%=      5-min Rain = 0
KCR2 081505Z 34002KT 05/04 A3045 RMK A01 T00500042  RH  095%=      5-min Rain = 0
KCR2 081506Z 34002KT 05/04 A3045 RMK A01 T00500042  RH  094%=      5-min Rain = 0
KCR2 081507Z 35002KT 05/04 A3045 RMK A01 T00500042  RH  094%=      5-min Rain = 0
KCR2 081508Z 34002KT 05/04 A3045 RMK A01 T00500042  RH  094%=      5-min Rain = 0
KCR2 081509Z 34002KT 05/04 A3045 RMK A01 T00500042  RH  094%=      5-min Rain = 0
KCR2 081510Z 33002KT 05/04 A3045 RMK A01 T00500042  RH  094%=      5-min Rain = 0
KCR2 081511Z 32002KT 05/04 A3045 RMK A01 T00500042  RH  094%=      5-min Rain = 0
KCR2 081512Z 34002KT 05/04 A3045 RMK A01 T00510042  RH  094%=      5-min Rain = 0
KCR2 081513Z 33001KT 05/04 A3045 RMK A01 T00510043  RH  094%=      5-min Rain = 0
KCR2 081514Z 35002KT 05/04 A3045 RMK A01 T00520044  RH  094%=      5-min Rain = 0
KCR2 081515Z 36002KT 05/04 A3045 RMK A01 T00520043  RH  094%=      5-min Rain = 0
KCR2 081516Z 01001KT 05/04 A3045 RMK A01 T00520042  RH  094%=      5-min Rain = 0
KCR2 081517Z 01002KT 05/04 A3045 RMK A01 T00520043  RH  094%=      5-min Rain = 0
KCR2 081518Z 01002KT 05/04 A3045 RMK A01 T00520044  RH  094%=      5-min Rain = 0
KCR2 081519Z 02003KT 05/04 A3045 RMK A01 T00520043  RH  094%=      5-min Rain = 0
KCR2 081520Z 01002KT 05/04 A3045 RMK A01 T00520043  RH  094%=      5-min Rain = 0
KCR2 081521Z 01002KT 05/04 A3045 RMK A01 T00520042  RH  093%=      5-min Rain = 0
KCR2 081522Z 02002KT 05/04 A3045 RMK A01 T00520041  RH  093%=      5-min Rain = 0
KCR2 081523Z 00002KT 05/04 A3045 RMK A01 T00520041  RH  093%=      5-min Rain = 0
KCR2 081524Z 01002KT 05/04 A3045 RMK A01 T00520042  RH  093%=      5-min Rain = 0
KCR2 081525Z 01003KT 05/04 A3044 RMK A01 T00520042  RH  093%=      5-min Rain = 0
KCR2 081526Z 36002KT 05/04 A3044 RMK A01 T00530042  RH  093%=      5-min Rain = 0
KCR2 081527Z 00002KT 05/04 A3044 RMK A01 T00520041  RH  093%=      5-min Rain = 0
KCR2 081528Z 01002KT 05/04 A3044 RMK A01 T00520041  RH  093%=      5-min Rain = 0
KCR2 081529Z 02001KT 05/04 A3044 RMK A01 T00520041  RH  092%=      5-min Rain = 0
KCR2 081530Z 03001KT 05/04 A3044 RMK A01 T00520040  RH  092%=      5-min Rain = 0
KCR2 081531Z 01001KT 05/04 A3044 RMK A01 T00520041  RH  092%=      5-min Rain = 0
KCR2 081532Z 36002KT 05/04 A3044 RMK A01 T00530041  RH  092%=      5-min Rain = 0
KCR2 081533Z 35002KT 05/04 A3044 RMK A01 T00530041  RH  092%=      5-min Rain = 0
KCR2 081534Z 35003KT 05/04 A3044 RMK A01 T00540043  RH  093%=      5-min Rain = 0
KCR2 081535Z 35003KT 05/04 A3044 RMK A01 T00540043  RH  092%=      5-min Rain = 0
KCR2 081536Z 36002KT 05/04 A3044 RMK A01 T00540041  RH  092%=      5-min Rain = 0
KCR2 081537Z 00001KT 05/04 A3044 RMK A01 T00530040  RH  091%=      5-min Rain = 0
KCR2 081538Z 00001KT 05/04 A3044 RMK A01 T00540041  RH  092%=      5-min Rain = 0
KCR2 081539Z 01002KT 05/04 A3044 RMK A01 T00540042  RH  092%=      5-min Rain = 0
KCR2 081540Z 04002KT 05/04 A3044 RMK A01 T00540041  RH  092%=      5-min Rain = 0
KCR2 081541Z 01002KT 05/04 A3044 RMK A01 T00540041  RH  091%=      5-min Rain = 0
KCR2 081542Z 02002KT 06/04 A3043 RMK A01 T00550042  RH  092%=      5-min Rain = 0
KCR2 081543Z 02001KT 06/04 A3043 RMK A01 T00550041  RH  091%=      5-min Rain = 0
KCR2 081544Z 35001KT 06/04 A3043 RMK A01 T00550041  RH  091%=      5-min Rain = 0
KCR2 081545Z 34001KT 06/04 A3043 RMK A01 T00550041  RH  091%=      5-min Rain = 0
KCR2 081546Z 33001KT 06/04 A3043 RMK A01 T00550040  RH  090%=      5-min Rain = 0
KCR2 081547Z 36002KT 06/04 A3043 RMK A01 T00550041  RH  091%=      5-min Rain = 0
KCR2 081548Z 36001KT 06/04 A3043 RMK A01 T00550041  RH  091%=      5-min Rain = 0
KCR2 081549Z 35001KT 06/04 A3043 RMK A01 T00550041  RH  091%=      5-min Rain = 0
KCR2 081550Z 01001KT 06/04 A3043 RMK A01 T00550040  RH  090%=      5-min Rain = 0
KCR2 081551Z 01001KT 06/04 A3043 RMK A01 T00550041  RH  090%=      5-min Rain = 0
KCR2 081552Z 36001KT 06/04 A3043 RMK A01 T00560041  RH  091%=      5-min Rain = 0
KCR2 081553Z 32001KT 06/04 A3043 RMK A01 T00570043  RH  091%=      5-min Rain = 0
KCR2 081554Z 30002KT 06/04 A3043 RMK A01 T00570044  RH  091%=      5-min Rain = 0
KCR2 081555Z 29002KT 06/04 A3043 RMK A01 T00580044  RH  091%=      5-min Rain = 0
KCR2 081556Z 29002KT 06/04 A3043 RMK A01 T00570042  RH  090%=      5-min Rain = 0
KCR2 081557Z 29001KT 06/04 A3043 RMK A01 T00560040  RH  089%=      5-min Rain = 0
KCR2 081558Z 29001KT 06/04 A3043 RMK A01 T00550039  RH  089%=      5-min Rain = 0
KCR2 081559Z 35001KT 06/04 A3043 RMK A01 T00550039  RH  089%=      5-min Rain = 0
KCR2 081600Z 36002KT 06/04 A3043 RMK A01 T00560040  RH  090%=      5-min Rain = 0
KCR2 081601Z 00001KT 06/04 A3043 RMK A01 T00560041  RH  090%=      5-min Rain = 0
KCR2 081602Z 00001KT 06/04 A3043 RMK A01 T00560041  RH  090%=      5-min Rain = 0
KCR2 081603Z 36001KT 06/04 A3043 RMK A01 T00560041  RH  090%=      5-min Rain = 0
KCR2 081604Z 35000KT 06/04 A3043 RMK A01 T00570041  RH  089%=      5-min Rain = 0
KCR2 081605Z 00000KT 06/04 A3043 RMK A01 T00570041  RH  089%=      5-min Rain = 0
KCR2 081606Z 34000KT 06/04 A3043 RMK A01 T00580043  RH  090%=      5-min Rain = 0
KCR2 081607Z 36001KT 06/04 A3043 RMK A01 T00590042  RH  089%=      5-min Rain = 0
KCR2 081608Z 35002KT 06/04 A3043 RMK A01 T00590042  RH  089%=      5-min Rain = 0
KCR2 081609Z 36002KT 06/04 A3043 RMK A01 T00590043  RH  089%=      5-min Rain = 0
KCR2 081610Z 35002KT 06/04 A3043 RMK A01 T00590042  RH  089%=      5-min Rain = 0
KCR2 081611Z 33002KT 06/04 A3043 RMK A01 T00600044  RH  090%=      5-min Rain = 0
KCR2 081612Z 29000KT 06/04 A3043 RMK A01 T00600044  RH  089%=      5-min Rain = 0
KCR2 081613Z 31000KT 06/04 A3043 RMK A01 T00600043  RH  089%=      5-min Rain = 0
KCR2 081614Z 34002KT 06/04 A3043 RMK A01 T00590042  RH  088%=      5-min Rain = 0
KCR2 081615Z 32002KT 06/04 A3043 RMK A01 T00600042  RH  089%=      5-min Rain = 0
KCR2 081616Z 31002KT 06/04 A3043 RMK A01 T00600041  RH  088%=      5-min Rain = 0
KCR2 081617Z 30001KT 06/04 A3043 RMK A01 T00590040  RH  088%=      5-min Rain = 0
KCR2 081618Z 31001KT 06/04 A3043 RMK A01 T00590041  RH  088%=      5-min Rain = 0
KCR2 081619Z 31001KT 06/04 A3043 RMK A01 T00590042  RH  089%=      5-min Rain = 0
KCR2 081620Z 29002KT 06/04 A3043 RMK A01 T00600044  RH  090%=      5-min Rain = 0
KCR2 081621Z 27002KT 06/05 A3043 RMK A01 T00620047  RH  091%=      5-min Rain = 0
KCR2 081622Z 27003KT 06/05 A3043 RMK A01 T00620047  RH  090%=      5-min Rain = 0
KCR2 081623Z 29002KT 06/04 A3043 RMK A01 T00610044  RH  089%=      5-min Rain = 0
KCR2 081624Z 29001KT 06/04 A3043 RMK A01 T00600042  RH  089%=      5-min Rain = 0
KCR2 081625Z 25002KT 06/04 A3043 RMK A01 T00590042  RH  089%=      5-min Rain = 0
KCR2 081626Z 24003KT 06/04 A3043 RMK A01 T00590043  RH  089%=      5-min Rain = 0
KCR2 081627Z 24002KT 06/04 A3043 RMK A01 T00590043  RH  089%=      5-min Rain = 0
KCR2 081628Z 27002KT 06/05 A3043 RMK A01 T00600045  RH  090%=      5-min Rain = 0
KCR2 081629Z 27003KT 06/05 A3043 RMK A01 T00610045  RH  090%=      5-min Rain = 0
KCR2 081630Z 28002KT 06/04 A3043 RMK A01 T00600044  RH  090%=      5-min Rain = 0
KCR2 081631Z 30002KT 06/04 A3043 RMK A01 T00590044  RH  090%=      5-min Rain = 0
KCR2 081632Z 31002KT 06/04 A3043 RMK A01 T00600044  RH  090%=      5-min Rain = 0
KCR2 081633Z 31002KT 06/04 A3043 RMK A01 T00590044  RH  090%=      5-min Rain = 0
KCR2 081634Z 31001KT 06/04 A3043 RMK A01 T00590043  RH  090%=      5-min Rain = 0
KCR2 081635Z 31001KT 06/05 A3043 RMK A01 T00600045  RH  090%=      5-min Rain = 0
KCR2 081636Z 30001KT 06/05 A3044 RMK A01 T00600045  RH  090%=      5-min Rain = 0
KCR2 081637Z 30000KT 06/05 A3044 RMK A01 T00600045  RH  090%=      5-min Rain = 0
KCR2 081638Z 31001KT 06/05 A3044 RMK A01 T00610046  RH  090%=      5-min Rain = 0
KCR2 081639Z 33002KT 06/05 A3044 RMK A01 T00620047  RH  090%=      5-min Rain = 0
KCR2 081640Z 31003KT 06/05 A3044 RMK A01 T00620048  RH  090%=      5-min Rain = 0
KCR2 081641Z 30003KT 06/05 A3044 RMK A01 T00630048  RH  090%=      5-min Rain = 0
KCR2 081642Z 31003KT 06/05 A3044 RMK A01 T00630048  RH  090%=      5-min Rain = 0
KCR2 081643Z 33004KT 06/05 A3044 RMK A01 T00630049  RH  091%=      5-min Rain = 0
KCR2 081644Z 33004KT 06/05 A3044 RMK A01 T00630049  RH  090%=      5-min Rain = 0
KCR2 081645Z 32004KT 06/05 A3044 RMK A01 T00630048  RH  090%=      5-min Rain = 0
KCR2 081646Z 33003KT 06/05 A3044 RMK A01 T00630045  RH  088%=      5-min Rain = 0
KCR2 081647Z 33003KT 06/04 A3044 RMK A01 T00610042  RH  087%=      5-min Rain = 0
KCR2 081648Z 32002KT 06/04 A3044 RMK A01 T00610043  RH  088%=      5-min Rain = 0
KCR2 081649Z 33002KT 06/05 A3044 RMK A01 T00630048  RH  090%=      5-min Rain = 0
KCR2 081650Z 31003KT 07/05 A3043 RMK A01 T00650049  RH  090%=      5-min Rain = 0
KCR2 081651Z 30003KT 07/05 A3043 RMK A01 T00650046  RH  088%=      5-min Rain = 0
KCR2 081652Z 30002KT 06/04 A3043 RMK A01 T00640044  RH  087%=      5-min Rain = 0
KCR2 081653Z 30004KT 06/04 A3043 RMK A01 T00630043  RH  087%=      5-min Rain = 0
KCR2 081654Z 29003KT 06/04 A3043 RMK A01 T00630041  RH  086%=      5-min Rain = 0
KCR2 081655Z 30002KT 06/04 A3043 RMK A01 T00630041  RH  086%=      5-min Rain = 0
KCR2 081656Z 27002KT 06/04 A3043 RMK A01 T00640044  RH  087%=      5-min Rain = 0
KCR2 081657Z 27001KT 07/04 A3043 RMK A01 T00650043  RH  086%=      5-min Rain = 0
KCR2 081658Z 28002KT 06/04 A3043 RMK A01 T00640042  RH  086%=      5-min Rain = 0
KCR2 081659Z 28002KT 07/04 A3043 RMK A01 T00650044  RH  086%=      5-min Rain = 0
KCR2 081700Z 31003KT 07/05 A3043 RMK A01 T00660046  RH  087%=      5-min Rain = 0
KCR2 081701Z 33003KT 07/05 A3043 RMK A01 T00670047  RH  087%=      5-min Rain = 0
KCR2 081702Z 31004KT 07/05 A3043 RMK A01 T00670048  RH  087%=      5-min Rain = 0
KCR2 081703Z 30004KT 07/05 A3043 RMK A01 T00680046  RH  086%=      5-min Rain = 0
KCR2 081704Z 33002KT 07/04 A3043 RMK A01 T00660043  RH  085%=      5-min Rain = 0
KCR2 081705Z 30002KT 07/04 A3043 RMK A01 T00660044  RH  086%=      5-min Rain = 0
KCR2 081706Z 31003KT 07/05 A3043 RMK A01 T00660045  RH  087%=      5-min Rain = 0
KCR2 081707Z 34004KT 07/05 A3043 RMK A01 T00670047  RH  087%=      5-min Rain = 0
KCR2 081708Z 34004KT 07/05 A3043 RMK A01 T00670047  RH  087%=      5-min Rain = 0
KCR2 081709Z 33002KT 07/05 A3043 RMK A01 T00670048  RH  088%=      5-min Rain = 0
KCR2 081710Z 32003KT 07/05 A3043 RMK A01 T00670048  RH  088%=      5-min Rain = 0
KCR2 081711Z 29003KT 07/05 A3043 RMK A01 T00670048  RH  087%=      5-min Rain = 0
KCR2 081712Z 28004KT 07/05 A3043 RMK A01 T00670048  RH  088%=      5-min Rain = 0
KCR2 081713Z 28003KT 07/05 A3043 RMK A01 T00660045  RH  087%=      5-min Rain = 0
KCR2 081714Z 28002KT 07/04 A3043 RMK A01 T00650044  RH  086%=      5-min Rain = 0
KCR2 081715Z 29003KT 07/05 A3043 RMK A01 T00650046  RH  088%=      5-min Rain = 0
KCR2 081716Z 26004KT 07/05 A3043 RMK A01 T00660047  RH  087%=      5-min Rain = 0
KCR2 081717Z 27004KT 07/05 A3042 RMK A01 T00660047  RH  088%=      5-min Rain = 0
KCR2 081718Z 26004KT 07/05 A3042 RMK A01 T00670047  RH  087%=      5-min Rain = 0
KCR2 081719Z 27003KT 07/05 A3042 RMK A01 T00670045  RH  086%=      5-min Rain = 0
KCR2 081720Z 28003KT 07/05 A3042 RMK A01 T00670046  RH  087%=      5-min Rain = 0
KCR2 081721Z 29003KT 07/05 A3042 RMK A01 T00670047  RH  087%=      5-min Rain = 0
KCR2 081722Z 29003KT 07/05 A3042 RMK A01 T00680049  RH  088%=      5-min Rain = 0
KCR2 081723Z 29002KT 07/05 A3042 RMK A01 T00690050  RH  088%=      5-min Rain = 0
KCR2 081724Z 30003KT 07/05 A3042 RMK A01 T00690047  RH  086%=      5-min Rain = 0
KCR2 081725Z 29002KT 07/05 A3042 RMK A01 T00690046  RH  086%=      5-min Rain = 0
KCR2 081726Z 29002KT 07/05 A3042 RMK A01 T00690046  RH  085%=      5-min Rain = 0
KCR2 081727Z 27003KT 07/05 A3043 RMK A01 T00690047  RH  086%=      5-min Rain = 0
KCR2 081728Z 29003KT 07/05 A3043 RMK A01 T00700049  RH  087%=      5-min Rain = 0
KCR2 081729Z 32003KT 07/05 A3043 RMK A01 T00700049  RH  087%=      5-min Rain = 0
KCR2 081730Z 31002KT 07/05 A3042 RMK A01 T00700047  RH  085%=      5-min Rain = 0
KCR2 081731Z 30003KT 07/05 A3042 RMK A01 T00700047  RH  086%=      5-min Rain = 0
KCR2 081732Z 32002KT 07/05 A3042 RMK A01 T00690047  RH  086%=      5-min Rain = 0
KCR2 081733Z 31002KT 07/05 A3042 RMK A01 T00700047  RH  086%=      5-min Rain = 0
KCR2 081734Z 31004KT 07/05 A3042 RMK A01 T00700048  RH  086%=      5-min Rain = 0
KCR2 081735Z 31004KT 07/05 A3042 RMK A01 T00700046  RH  085%=      5-min Rain = 0
KCR2 081736Z 31003KT 07/05 A3042 RMK A01 T00690045  RH  085%=      5-min Rain = 0
KCR2 081737Z 32002KT 07/04 A3042 RMK A01 T00680044  RH  085%=      5-min Rain = 0
KCR2 081738Z 33002KT 07/05 A3042 RMK A01 T00680046  RH  086%=      5-min Rain = 0
KCR2 081739Z 33002KT 07/05 A3042 RMK A01 T00680046  RH  085%=      5-min Rain = 0
KCR2 081740Z 32002KT 07/05 A3042 RMK A01 T00690046  RH  086%=      5-min Rain = 0
KCR2 081741Z 30002KT 07/05 A3042 RMK A01 T00690046  RH  085%=      5-min Rain = 0
KCR2 081742Z 30003KT 07/05 A3042 RMK A01 T00690046  RH  086%=      5-min Rain = 0
KCR2 081743Z 29002KT 07/05 A3042 RMK A01 T00690046  RH  085%=      5-min Rain = 0
KCR2 081744Z 28003KT 07/05 A3042 RMK A01 T00690047  RH  086%=      5-min Rain = 0
KCR2 081745Z 28003KT 07/05 A3042 RMK A01 T00690046  RH  085%=      5-min Rain = 0
KCR2 081746Z 29002KT 07/05 A3041 RMK A01 T00690046  RH  086%=      5-min Rain = 0
KCR2 081747Z 29001KT 07/05 A3041 RMK A01 T00690046  RH  085%=      5-min Rain = 0
KCR2 081748Z 31001KT 07/05 A3041 RMK A01 T00690046  RH  085%=      5-min Rain = 0
KCR2 081749Z 32001KT 07/05 A3041 RMK A01 T00700047  RH  085%=      5-min Rain = 0
KCR2 081750Z 33001KT 07/05 A3041 RMK A01 T00710049  RH  086%=      5-min Rain = 0
KCR2 081751Z 31003KT 07/05 A3041 RMK A01 T00720050  RH  086%=      5-min Rain = 0
KCR2 081752Z 32002KT 07/05 A3041 RMK A01 T00740054  RH  087%=      5-min Rain = 0
KCR2 081753Z 34001KT 08/05 A3041 RMK A01 T00750051  RH  085%=      5-min Rain = 0
KCR2 081754Z 31001KT 08/05 A3041 RMK A01 T00750050  RH  085%=      5-min Rain = 0
KCR2 081755Z 29001KT 08/05 A3041 RMK A01 T00750049  RH  084%=      5-min Rain = 0
KCR2 081756Z 30002KT 07/05 A3041 RMK A01 T00740048  RH  083%=      5-min Rain = 0
KCR2 081757Z 30003KT 07/05 A3041 RMK A01 T00740048  RH  084%=      5-min Rain = 0
KCR2 081758Z 29003KT 07/05 A3041 RMK A01 T00740047  RH  083%=      5-min Rain = 0
KCR2 081759Z 28002KT 07/05 A3041 RMK A01 T00720045  RH  083%=      5-min Rain = 0
KCR2 081800Z 28001KT 07/05 A3041 RMK A01 T00720046  RH  084%=      5-min Rain = 0
KCR2 081801Z 26001KT 07/05 A3041 RMK A01 T00710045  RH  083%=      5-min Rain = 0
KCR2 081802Z 28002KT 07/05 A3041 RMK A01 T00720047  RH  085%=      5-min Rain = 0
KCR2 081803Z 29002KT 07/05 A3041 RMK A01 T00740053  RH  087%=      5-min Rain = 0
KCR2 081804Z 29001KT 08/05 A3041 RMK A01 T00750053  RH  086%=      5-min Rain = 0
KCR2 081805Z 29003KT 08/05 A3041 RMK A01 T00750051  RH  085%=      5-min Rain = 0
KCR2 081806Z 32003KT 08/05 A3041 RMK A01 T00760052  RH  085%=      5-min Rain = 0
KCR2 081807Z 35003KT 08/05 A3041 RMK A01 T00770050  RH  083%=      5-min Rain = 0
KCR2 081808Z 36002KT 08/05 A3041 RMK A01 T00760048  RH  082%=      5-min Rain = 0
KCR2 081809Z 31000KT 08/05 A3041 RMK A01 T00750046  RH  082%=      5-min Rain = 0
KCR2 081810Z 27000KT 08/05 A3041 RMK A01 T00760047  RH  082%=      5-min Rain = 0
KCR2 081816Z 33004KT 08/05 A3041 RMK A01 T00800050  RH  082%=      5-min Rain = 0
KCR2 081817Z 34002KT 08/05 A3041 RMK A01 T00800050  RH  081%=      5-min Rain = 0
KCR2 081818Z 33003KT 08/05 A3041 RMK A01 T00790050  RH  082%=      5-min Rain = 0
KCR2 081819Z 35004KT 08/05 A3041 RMK A01 T00790049  RH  081%=      5-min Rain = 0
KCR2 081820Z 31003KT 08/05 A3041 RMK A01 T00790051  RH  082%=      5-min Rain = 0
KCR2 081821Z 32002KT 08/05 A3041 RMK A01 T00810051  RH  081%=      5-min Rain = 0
KCR2 081822Z 01001KT 08/05 A3041 RMK A01 T00800051  RH  082%=      5-min Rain = 0
KCR2 081823Z 02001KT 08/05 A304 RMK A01 T00810051  RH  082%=      5-min Rain = 0
KCR2 081824Z 07000KT 08/05 A304 RMK A01 T00810049  RH  081%=      5-min Rain = 0
KCR2 081825Z 27002KT 08/05 A304 RMK A01 T00810050  RH  081%=      5-min Rain = 0
KCR2 081826Z 30003KT 08/05 A304 RMK A01 T00820050  RH  080%=      5-min Rain = 0
KCR2 081827Z 29003KT 08/05 A304 RMK A01 T00810050  RH  081%=      5-min Rain = 0
KCR2 081828Z 30002KT 08/05 A304 RMK A01 T00810050  RH  081%=      5-min Rain = 0
KCR2 081829Z 30003KT 08/05 A304 RMK A01 T00810049  RH  080%=      5-min Rain = 0
KCR2 081830Z 27003KT 08/05 A304 RMK A01 T00810051  RH  082%=      5-min Rain = 0
KCR2 081831Z 28003KT 08/05 A304 RMK A01 T00810049  RH  080%=      5-min Rain = 0
KCR2 081832Z 27001KT 08/05 A304 RMK A01 T00800047  RH  080%=      5-min Rain = 0
KCR2 081833Z 27001KT 08/05 A304 RMK A01 T00800047  RH  080%=      5-min Rain = 0
KCR2 081834Z 25001KT 08/05 A304 RMK A01 T00790046  RH  080%=      5-min Rain = 0
KCR2 081835Z 28002KT 08/05 A304 RMK A01 T00790047  RH  080%=      5-min Rain = 0
KCR2 081836Z 30001KT 08/05 A304 RMK A01 T00790046  RH  080%=      5-min Rain = 0
KCR2 081837Z 29001KT 08/05 A304 RMK A01 T00790047  RH  080%=      5-min Rain = 0
KCR2 081838Z 32002KT 08/05 A304 RMK A01 T00800048  RH  080%=      5-min Rain = 0
KCR2 081839Z 33002KT 08/05 A304 RMK A01 T00810049  RH  081%=      5-min Rain = 0
KCR2 081840Z 33004KT 08/05 A304 RMK A01 T00820051  RH  081%=      5-min Rain = 0
KCR2 081841Z 34004KT 08/05 A304 RMK A01 T00830051  RH  080%=      5-min Rain = 0
KCR2 081842Z 34004KT 08/05 A304 RMK A01 T00830049  RH  079%=      5-min Rain = 0
KCR2 081843Z 33003KT 08/05 A304 RMK A01 T00820048  RH  079%=      5-min Rain = 0
KCR2 081844Z 34001KT 08/05 A304 RMK A01 T00810047  RH  079%=      5-min Rain = 0
KCR2 081845Z 02001KT 08/05 A304 RMK A01 T00810048  RH  080%=      5-min Rain = 0
KCR2 081846Z 33002KT 08/05 A3039 RMK A01 T00810049  RH  080%=      5-min Rain = 0
KCR2 081847Z 33001KT 08/05 A3039 RMK A01 T00810046  RH  078%=      5-min Rain = 0
KCR2 081848Z 34002KT 08/05 A3039 RMK A01 T00810047  RH  079%=      5-min Rain = 0
KCR2 081849Z 33002KT 08/05 A3039 RMK A01 T00820050  RH  081%=      5-min Rain = 0
KCR2 081850Z 30004KT 08/05 A3039 RMK A01 T00830051  RH  081%=      5-min Rain = 0
KCR2 081851Z 27004KT 08/05 A3039 RMK A01 T00830050  RH  079%=      5-min Rain = 0
KCR2 081852Z 28002KT 08/05 A3039 RMK A01 T00820047  RH  079%=      5-min Rain = 0
KCR2 081853Z 34003KT 08/05 A3039 RMK A01 T00810050  RH  081%=      5-min Rain = 0
KCR2 081854Z 35003KT 08/05 A3039 RMK A01 T00820052  RH  081%=      5-min Rain = 0
KCR2 081855Z 33004KT 08/05 A3039 RMK A01 T00830052  RH  081%=      5-min Rain = 0
KCR2 081856Z 33004KT 08/05 A3039 RMK A01 T00840051  RH  080%=      5-min Rain = 0
KCR2 081857Z 33003KT 08/05 A3039 RMK A01 T00830048  RH  078%=      5-min Rain = 0
KCR2 081858Z 31002KT 08/05 A3039 RMK A01 T00820049  RH  079%=      5-min Rain = 0
KCR2 081859Z 30003KT 08/05 A3039 RMK A01 T00830052  RH  081%=      5-min Rain = 0
KCR2 081900Z 28003KT 08/05 A3038 RMK A01 T00840051  RH  080%=      5-min Rain = 0
KCR2 081901Z 26003KT 08/05 A3038 RMK A01 T00830049  RH  079%=      5-min Rain = 0
KCR2 081902Z 27002KT 08/05 A3038 RMK A01 T00830049  RH  080%=      5-min Rain = 0
KCR2 081903Z 32002KT 08/05 A3038 RMK A01 T00830050  RH  080%=      5-min Rain = 0
KCR2 081904Z 33003KT 08/05 A3038 RMK A01 T00830050  RH  080%=      5-min Rain = 0
KCR2 081905Z 33003KT 08/05 A3038 RMK A01 T00840052  RH  081%=      5-min Rain = 0
KCR2 081906Z 33003KT 09/05 A3038 RMK A01 T00850051  RH  079%=      5-min Rain = 0
KCR2 081907Z 35003KT 09/05 A3038 RMK A01 T00850050  RH  079%=      5-min Rain = 0
KCR2 081908Z 34002KT 09/05 A3038 RMK A01 T00850049  RH  078%=      5-min Rain = 0
KCR2 081909Z 34002KT 09/05 A3038 RMK A01 T00850050  RH  079%=      5-min Rain = 0
KCR2 081910Z 33002KT 09/05 A3038 RMK A01 T00850050  RH  078%=      5-min Rain = 0
KCR2 081911Z 32003KT 09/05 A3038 RMK A01 T00850050  RH  079%=      5-min Rain = 0
KCR2 081912Z 34002KT 09/05 A3038 RMK A01 T00860049  RH  078%=      5-min Rain = 0
KCR2 081913Z 32003KT 09/05 A3038 RMK A01 T00850049  RH  078%=      5-min Rain = 0
KCR2 081914Z 35003KT 09/05 A3038 RMK A01 T00850049  RH  078%=      5-min Rain = 0
KCR2 081915Z 36002KT 09/05 A3038 RMK A01 T00850049  RH  078%=      5-min Rain = 0
KCR2 081916Z 34003KT 09/05 A3037 RMK A01 T00850048  RH  077%=      5-min Rain = 0
KCR2 081917Z 34002KT 09/05 A3037 RMK A01 T00850049  RH  078%=      5-min Rain = 0
KCR2 081918Z 00001KT 09/05 A3037 RMK A01 T00860049  RH  078%=      5-min Rain = 0
KCR2 081919Z 00000KT 09/05 A3037 RMK A01 T00860048  RH  077%=      5-min Rain = 0
KCR2 081920Z 00000KT 09/05 A3037 RMK A01 T00860050  RH  078%=      5-min Rain = 0
KCR2 081921Z 29001KT 09/05 A3037 RMK A01 T00880052  RH  078%=      5-min Rain = 0
KCR2 081922Z 27003KT 09/06 A3037 RMK A01 T00900055  RH  079%=      5-min Rain = 0
KCR2 081923Z 26002KT 09/05 A3037 RMK A01 T00890050  RH  076%=      5-min Rain = 0
KCR2 081924Z 27002KT 09/05 A3037 RMK A01 T00890052  RH  078%=      5-min Rain = 0
KCR2 081925Z 28001KT 09/05 A3037 RMK A01 T00870048  RH  076%=      5-min Rain = 0
KCR2 081926Z 31001KT 09/05 A3037 RMK A01 T00870049  RH  077%=      5-min Rain = 0
KCR2 081927Z 27002KT 09/05 A3037 RMK A01 T00870051  RH  078%=      5-min Rain = 0
KCR2 081928Z 28003KT 09/05 A3037 RMK A01 T00880050  RH  077%=      5-min Rain = 0
KCR2 081929Z 31003KT 09/05 A3037 RMK A01 T00880052  RH  078%=      5-min Rain = 0
KCR2 081930Z 33002KT 09/05 A3036 RMK A01 T00890051  RH  077%=      5-min Rain = 0
KCR2 081931Z 28000KT 09/05 A3036 RMK A01 T00890049  RH  076%=      5-min Rain = 0
KCR2 081932Z 21003KT 09/05 A3036 RMK A01 T00890051  RH  077%=      5-min Rain = 0
KCR2 081933Z 23003KT 09/05 A3036 RMK A01 T00890051  RH  077%=      5-min Rain = 0
KCR2 081934Z 24003KT 09/06 A3036 RMK A01 T00890056  RH  079%=      5-min Rain = 0
KCR2 081935Z 26003KT 09/06 A3036 RMK A01 T00900056  RH  079%=      5-min Rain = 0
KCR2 081936Z 23005KT 09/05 A3036 RMK A01 T00900054  RH  078%=      5-min Rain = 0
KCR2 081937Z 26005KT 09/05 A3036 RMK A01 T00900054  RH  078%=      5-min Rain = 0
KCR2 081938Z 27004KT 09/05 A3036 RMK A01 T00900052  RH  077%=      5-min Rain = 0
KCR2 081939Z 25004KT 09/05 A3036 RMK A01 T00900054  RH  078%=      5-min Rain = 0
KCR2 081940Z 27004KT 09/06 A3036 RMK A01 T00900055  RH  078%=      5-min Rain = 0
KCR2 081941Z 26003KT 09/05 A3036 RMK A01 T00900053  RH  077%=      5-min Rain = 0
KCR2 081942Z 26004KT 09/05 A3036 RMK A01 T00900052  RH  077%=      5-min Rain = 0
KCR2 081943Z 25004KT 09/05 A3036 RMK A01 T00900052  RH  077%=      5-min Rain = 0
KCR2 081944Z 25002KT 09/05 A3036 RMK A01 T00890049  RH  076%=      5-min Rain = 0
KCR2 081945Z 23002KT 09/05 A3036 RMK A01 T00880050  RH  077%=      5-min Rain = 0
KCR2 081946Z 24003KT 09/05 A3036 RMK A01 T00890052  RH  078%=      5-min Rain = 0
KCR2 081947Z 22002KT 09/05 A3035 RMK A01 T00890050  RH  076%=      5-min Rain = 0
KCR2 081948Z 22002KT 09/05 A3035 RMK A01 T00890052  RH  078%=      5-min Rain = 0
KCR2 081949Z 21001KT 09/05 A3035 RMK A01 T00890050  RH  077%=      5-min Rain = 0
KCR2 081950Z 25001KT 09/05 A3035 RMK A01 T00900052  RH  077%=      5-min Rain = 0
KCR2 081951Z 22002KT 09/06 A3035 RMK A01 T00910056  RH  079%=      5-min Rain = 0
KCR2 081952Z 22003KT 09/06 A3035 RMK A01 T00930057  RH  078%=      5-min Rain = 0
KCR2 081953Z 21002KT 09/05 A3035 RMK A01 T00930054  RH  076%=      5-min Rain = 0
KCR2 081954Z 21003KT 09/05 A3035 RMK A01 T00930054  RH  077%=      5-min Rain = 0
KCR2 081955Z 20002KT 09/05 A3035 RMK A01 T00920054  RH  077%=      5-min Rain = 0
KCR2 081956Z 26002KT 09/06 A3035 RMK A01 T00930056  RH  078%=      5-min Rain = 0
KCR2 081957Z 28003KT 09/06 A3035 RMK A01 T00930056  RH  077%=      5-min Rain = 0
KCR2 081958Z 26003KT 09/05 A3035 RMK A01 T00930052  RH  075%=      5-min Rain = 0
KCR2 081959Z 27002KT 09/05 A3035 RMK A01 T00920050  RH  075%=      5-min Rain = 0
KCR2 082000Z 29004KT 09/05 A3035 RMK A01 T00920052  RH  076%=      5-min Rain = 0
KCR2 082001Z 30003KT 09/05 A3035 RMK A01 T00910053  RH  077%=      5-min Rain = 0
KCR2 082002Z 29004KT 09/05 A3035 RMK A01 T00920053  RH  077%=      5-min Rain = 0
KCR2 082003Z 29005KT 09/05 A3035 RMK A01 T00930054  RH  077%=      5-min Rain = 0
KCR2 082004Z 28004KT 09/06 A3035 RMK A01 T00940056  RH  077%=      5-min Rain = 0
KCR2 082005Z 29004KT 09/06 A3035 RMK A01 T00940057  RH  077%=      5-min Rain = 0
KCR2 082006Z 29004KT 10/06 A3035 RMK A01 T00950055  RH  076%=      5-min Rain = 0
KCR2 082007Z 29004KT 09/05 A3035 RMK A01 T00940052  RH  075%=      5-min Rain = 0
KCR2 082008Z 28003KT 09/05 A3035 RMK A01 T00930050  RH  075%=      5-min Rain = 0
KCR2 082009Z 28003KT 09/05 A3034 RMK A01 T00920051  RH  075%=      5-min Rain = 0
KCR2 082010Z 27003KT 09/05 A3034 RMK A01 T00920051  RH  076%=      5-min Rain = 0
KCR2 082011Z 28001KT 09/05 A3034 RMK A01 T00920051  RH  075%=      5-min Rain = 0
KCR2 082012Z 25002KT 09/05 A3034 RMK A01 T00920052  RH  076%=      5-min Rain = 0
KCR2 082013Z 24002KT 09/05 A3034 RMK A01 T00930051  RH  075%=      5-min Rain = 0
KCR2 082014Z 23001KT 09/05 A3034 RMK A01 T00920050  RH  075%=      5-min Rain = 0
KCR2 082015Z 25001KT 09/05 A3034 RMK A01 T00920050  RH  075%=      5-min Rain = 0
KCR2 082016Z 23001KT 09/05 A3034 RMK A01 T00930052  RH  075%=      5-min Rain = 0
KCR2 082017Z 22002KT 09/05 A3034 RMK A01 T00940054  RH  076%=      5-min Rain = 0
KCR2 082018Z 26002KT 10/06 A3034 RMK A01 T00950056  RH  077%=      5-min Rain = 0
KCR2 082019Z 23002KT 10/05 A3034 RMK A01 T00970054  RH  075%=      5-min Rain = 0
KCR2 082020Z 22001KT 10/05 A3034 RMK A01 T00970054  RH  075%=      5-min Rain = 0
KCR2 082021Z 22000KT 10/06 A3034 RMK A01 T00970058  RH  077%=      5-min Rain = 0
KCR2 082022Z 30001KT 10/06 A3034 RMK A01 T00980057  RH  076%=      5-min Rain = 0
KCR2 082023Z 31002KT 10/05 A3034 RMK A01 T00980053  RH  073%=      5-min Rain = 0
KCR2 082024Z 34002KT 10/05 A3034 RMK A01 T00980053  RH  074%=      5-min Rain = 0
KCR2 082025Z 01003KT 10/06 A3034 RMK A01 T00990055  RH  074%=      5-min Rain = 0
KCR2 082026Z 01003KT 10/06 A3034 RMK A01 T00990055  RH  074%=      5-min Rain = 0
KCR2 082027Z 01003KT 10/05 A3034 RMK A01 T01000054  RH  073%=      5-min Rain = 0
KCR2 082028Z 00002KT 10/05 A3034 RMK A01 T01000053  RH  073%=      5-min Rain = 0
KCR2 082029Z 35003KT 10/05 A3034 RMK A01 T00990052  RH  072%=      5-min Rain = 0
KCR2 082030Z 35002KT 10/05 A3034 RMK A01 T00980050  RH  072%=      5-min Rain = 0
KCR2 082031Z 33003KT 10/05 A3034 RMK A01 T00970051  RH  073%=      5-min Rain = 0
KCR2 082032Z 30003KT 10/05 A3034 RMK A01 T00970053  RH  074%=      5-min Rain = 0
KCR2 082033Z 32004KT 10/05 A3034 RMK A01 T00970052  RH  074%=      5-min Rain = 0
KCR2 082034Z 30003KT 10/05 A3034 RMK A01 T00970051  RH  073%=      5-min Rain = 0
KCR2 082035Z 28003KT 10/05 A3034 RMK A01 T00970053  RH  074%=      5-min Rain = 0
KCR2 082036Z 28002KT 10/05 A3034 RMK A01 T00970052  RH  074%=      5-min Rain = 0
KCR2 082037Z 32002KT 10/05 A3033 RMK A01 T00960051  RH  073%=      5-min Rain = 0
KCR2 082038Z 29001KT 10/05 A3033 RMK A01 T00960052  RH  074%=      5-min Rain = 0
KCR2 082039Z 24003KT 10/05 A3033 RMK A01 T00970053  RH  074%=      5-min Rain = 0
KCR2 082040Z 22001KT 10/05 A3033 RMK A01 T00970052  RH  074%=      5-min Rain = 0
KCR2 082041Z 21001KT 10/05 A3033 RMK A01 T00970051  RH  073%=      5-min Rain = 0
KCR2 082042Z 00000KT 10/05 A3033 RMK A01 T00970051  RH  073%=      5-min Rain = 0
KCR2 082043Z 26000KT 10/05 A3033 RMK A01 T00980053  RH  074%=      5-min Rain = 0
KCR2 082044Z 28003KT 10/05 A3033 RMK A01 T00990054  RH  074%=      5-min Rain = 0
KCR2 082045Z 27004KT 10/05 A3033 RMK A01 T00990054  RH  073%=      5-min Rain = 0
KCR2 082046Z 27003KT 10/06 A3033 RMK A01 T00990055  RH  074%=      5-min Rain = 0
KCR2 082047Z 27003KT 10/05 A3033 RMK A01 T00980053  RH  074%=      5-min Rain = 0
KCR2 082048Z 28002KT 10/05 A3033 RMK A01 T00980053  RH  073%=      5-min Rain = 0
KCR2 082049Z 32002KT 10/06 A3033 RMK A01 T00980056  RH  075%=      5-min Rain = 0
KCR2 082050Z 33001KT 10/05 A3033 RMK A01 T00990054  RH  073%=      5-min Rain = 0
KCR2 082051Z 02002KT 10/05 A3033 RMK A01 T00990054  RH  074%=      5-min Rain = 0
KCR2 082052Z 01002KT 10/06 A3033 RMK A01 T01000055  RH  073%=      5-min Rain = 0
KCR2 082053Z 28001KT 10/06 A3033 RMK A01 T01000055  RH  074%=      5-min Rain = 0
KCR2 082054Z 26002KT 10/06 A3033 RMK A01 T01020058  RH  074%=      5-min Rain = 0
KCR2 082055Z 28004KT 10/06 A3033 RMK A01 T01020058  RH  074%=      5-min Rain = 0
KCR2 082056Z 28004KT 10/06 A3033 RMK A01 T01020056  RH  073%=      5-min Rain = 0
KCR2 082057Z 28003KT 10/05 A3033 RMK A01 T01010054  RH  073%=      5-min Rain = 0
KCR2 082058Z 27003KT 10/05 A3033 RMK A01 T00990054  RH  073%=      5-min Rain = 0
KCR2 082059Z 27003KT 10/05 A3033 RMK A01 T00990054  RH  074%=      5-min Rain = 0
KCR2 082100Z 26002KT 10/05 A3033 RMK A01 T00990052  RH  073%=      5-min Rain = 0
KCR2 082101Z 28001KT 10/05 A3033 RMK A01 T00990053  RH  073%=      5-min Rain = 0
KCR2 082102Z 27000KT 10/05 A3033 RMK A01 T00980051  RH  072%=      5-min Rain = 0
KCR2 082103Z 28000KT 10/05 A3033 RMK A01 T00990051  RH  072%=      5-min Rain = 0
KCR2 082104Z 32000KT 10/05 A3033 RMK A01 T00990053  RH  073%=      5-min Rain = 0
KCR2 082105Z 25003KT 10/06 A3033 RMK A01 T01000056  RH  074%=      5-min Rain = 0
KCR2 082106Z 26004KT 10/06 A3033 RMK A01 T01010057  RH  074%=      5-min Rain = 0
KCR2 082107Z 25003KT 10/05 A3033 RMK A01 T01010053  RH  072%=      5-min Rain = 0
KCR2 082108Z 22002KT 10/05 A3032 RMK A01 T01000053  RH  072%=      5-min Rain = 0
KCR2 082109Z 22002KT 10/05 A3032 RMK A01 T00990054  RH  073%=      5-min Rain = 0
KCR2 082110Z 23002KT 10/06 A3032 RMK A01 T01000057  RH  075%=      5-min Rain = 0
KCR2 082111Z 23003KT 10/06 A3033 RMK A01 T01000055  RH  074%=      5-min Rain = 0
KCR2 082112Z 25004KT 10/06 A3033 RMK A01 T01010058  RH  075%=      5-min Rain = 0
KCR2 082113Z 22005KT 10/06 A3033 RMK A01 T01010058  RH  074%=      5-min Rain = 0
KCR2 082114Z 21004KT 10/06 A3033 RMK A01 T01010056  RH  074%=      5-min Rain = 0
KCR2 082115Z 21003KT 10/05 A3033 RMK A01 T00990053  RH  073%=      5-min Rain = 0
KCR2 082116Z 21004KT 10/06 A3032 RMK A01 T00990055  RH  074%=      5-min Rain = 0
KCR2 082117Z 21004KT 10/06 A3032 RMK A01 T00990056  RH  074%=      5-min Rain = 0
KCR2 082118Z 23004KT 10/06 A3032 RMK A01 T01000055  RH  074%=      5-min Rain = 0
KCR2 082119Z 22004KT 10/06 A3032 RMK A01 T01000059  RH  076%=      5-min Rain = 0
KCR2 082120Z 22004KT 10/06 A3032 RMK A01 T01010059  RH  075%=      5-min Rain = 0
KCR2 082121Z 23003KT 10/06 A3032 RMK A01 T01010060  RH  075%=      5-min Rain = 0
KCR2 082122Z 26004KT 10/06 A3032 RMK A01 T01020059  RH  074%=      5-min Rain = 0
KCR2 082123Z 26004KT 10/06 A3032 RMK A01 T01020058  RH  074%=      5-min Rain = 0
KCR2 082124Z 24003KT 10/06 A3032 RMK A01 T01020057  RH  074%=      5-min Rain = 0
KCR2 082125Z 24003KT 10/06 A3032 RMK A01 T01010055  RH  073%=      5-min Rain = 0
KCR2 082126Z 25004KT 10/06 A3032 RMK A01 T01010055  RH  074%=      5-min Rain = 0
KCR2 082127Z 25006KT 10/06 A3032 RMK A01 T01010058  RH  075%=      5-min Rain = 0
KCR2 082128Z 25005KT 10/06 A3032 RMK A01 T01000056  RH  074%=      5-min Rain = 0
KCR2 082129Z 25005KT 10/06 A3032 RMK A01 T00990058  RH  075%=      5-min Rain = 0
KCR2 082130Z 26004KT 10/06 A3033 RMK A01 T01000056  RH  075%=      5-min Rain = 0
KCR2 082131Z 23004KT 10/06 A3033 RMK A01 T00990055  RH  074%=      5-min Rain = 0
KCR2 082132Z 24003KT 10/06 A3033 RMK A01 T00990055  RH  074%=      5-min Rain = 0
KCR2 082133Z 24003KT 10/06 A3032 RMK A01 T00990055  RH  074%=      5-min Rain = 0
KCR2 082134Z 22002KT 10/06 A3032 RMK A01 T00990057  RH  075%=      5-min Rain = 0
KCR2 082135Z 20003KT 10/06 A3032 RMK A01 T01000057  RH  075%=      5-min Rain = 0
KCR2 082136Z 20004KT 10/06 A3032 RMK A01 T01000056  RH  074%=      5-min Rain = 0
KCR2 082137Z 23003KT 10/06 A3032 RMK A01 T00990056  RH  074%=      5-min Rain = 0
KCR2 082138Z 23002KT 10/05 A3032 RMK A01 T01000054  RH  073%=      5-min Rain = 0
KCR2 082139Z 22002KT 10/06 A3032 RMK A01 T01000055  RH  074%=      5-min Rain = 0
KCR2 082140Z 25003KT 10/06 A3032 RMK A01 T01000057  RH  075%=      5-min Rain = 0
KCR2 082141Z 29003KT 10/06 A3032 RMK A01 T01000056  RH  074%=      5-min Rain = 0
KCR2 082142Z 27003KT 10/06 A3032 RMK A01 T01000057  RH  074%=      5-min Rain = 0
KCR2 082143Z 27003KT 10/06 A3032 RMK A01 T01010057  RH  074%=      5-min Rain = 0
KCR2 082144Z 25004KT 10/06 A3032 RMK A01 T01010056  RH  073%=      5-min Rain = 0
KCR2 082145Z 22004KT 10/06 A3032 RMK A01 T01010059  RH  075%=      5-min Rain = 0
KCR2 082146Z 24002KT 10/06 A3032 RMK A01 T01010060  RH  075%=      5-min Rain = 0
KCR2 082147Z 21003KT 10/06 A3032 RMK A01 T01020058  RH  074%=      5-min Rain = 0
KCR2 082148Z 22003KT 10/06 A3032 RMK A01 T01020062  RH  076%=      5-min Rain = 0
KCR2 082149Z 22003KT 10/06 A3032 RMK A01 T01030060  RH  075%=      5-min Rain = 0
KCR2 082150Z 24005KT 10/06 A3032 RMK A01 T01030058  RH  074%=      5-min Rain = 0
KCR2 082151Z 24005KT 10/06 A3032 RMK A01 T01020057  RH  074%=      5-min Rain = 0
KCR2 082152Z 24003KT 10/05 A3032 RMK A01 T01010054  RH  073%=      5-min Rain = 0
KCR2 082153Z 23002KT 10/06 A3032 RMK A01 T01000056  RH  074%=      5-min Rain = 0
KCR2 082154Z 19001KT 10/06 A3032 RMK A01 T01000055  RH  074%=      5-min Rain = 0
KCR2 082155Z 21002KT 10/06 A3032 RMK A01 T01000058  RH  075%=      5-min Rain = 0
KCR2 082156Z 26004KT 10/06 A3032 RMK A01 T01000055  RH  074%=      5-min Rain = 0
KCR2 082157Z 26004KT 10/06 A3032 RMK A01 T01010057  RH  074%=      5-min Rain = 0
KCR2 082158Z 25003KT 10/06 A3032 RMK A01 T01010056  RH  074%=      5-min Rain = 0
KCR2 082159Z 24003KT 10/06 A3032 RMK A01 T01010056  RH  073%=      5-min Rain = 0
KCR2 082200Z 24005KT 10/06 A3032 RMK A01 T01010057  RH  074%=      5-min Rain = 0
KCR2 082201Z 24003KT 10/06 A3032 RMK A01 T01000056  RH  074%=      5-min Rain = 0
KCR2 082202Z 25003KT 10/06 A3032 RMK A01 T01000057  RH  075%=      5-min Rain = 0
KCR2 082203Z 25002KT 10/06 A3032 RMK A01 T01010056  RH  074%=      5-min Rain = 0
KCR2 082204Z 24002KT 10/06 A3032 RMK A01 T01000055  RH  073%=      5-min Rain = 0
KCR2 082205Z 24002KT 10/06 A3032 RMK A01 T01010058  RH  074%=      5-min Rain = 0
KCR2 082206Z 25004KT 10/06 A3032 RMK A01 T01010058  RH  074%=      5-min Rain = 0
KCR2 082207Z 25004KT 10/06 A3032 RMK A01 T01020060  RH  075%=      5-min Rain = 0
KCR2 082208Z 23003KT 10/06 A3032 RMK A01 T01020059  RH  074%=      5-min Rain = 0
KCR2 082209Z 22003KT 10/06 A3032 RMK A01 T01020059  RH  075%=      5-min Rain = 0
KCR2 082210Z 21003KT 10/06 A3032 RMK A01 T01020060  RH  075%=      5-min Rain = 0
KCR2 082211Z 23004KT 10/06 A3032 RMK A01 T01020060  RH  075%=      5-min Rain = 0
KCR2 082212Z 24003KT 10/06 A3032 RMK A01 T01020059  RH  075%=      5-min Rain = 0
KCR2 082213Z 24003KT 10/06 A3032 RMK A01 T01020058  RH  074%=      5-min Rain = 0
KCR2 082214Z 27003KT 10/06 A3032 RMK A01 T01020058  RH  074%=      5-min Rain = 0
KCR2 082215Z 28004KT 10/06 A3032 RMK A01 T01010057  RH  074%=      5-min Rain = 0
KCR2 082216Z 28005KT 10/06 A3032 RMK A01 T01010058  RH  074%=      5-min Rain = 0
KCR2 082217Z 28004KT 10/06 A3032 RMK A01 T01010059  RH  075%=      5-min Rain = 0
KCR2 082218Z 30003KT 10/06 A3032 RMK A01 T01020058  RH  074%=      5-min Rain = 0
KCR2 082219Z 27003KT 10/06 A3032 RMK A01 T01010057  RH  074%=      5-min Rain = 0
KCR2 082220Z 26003KT 10/06 A3032 RMK A01 T01010058  RH  074%=      5-min Rain = 0
KCR2 082221Z 27004KT 10/06 A3032 RMK A01 T01010059  RH  075%=      5-min Rain = 0
KCR2 082222Z 26003KT 10/06 A3032 RMK A01 T01020059  RH  075%=      5-min Rain = 0
KCR2 082223Z 24003KT 10/06 A3032 RMK A01 T01020060  RH  075%=      5-min Rain = 0
KCR2 082224Z 25002KT 10/06 A3032 RMK A01 T01020060  RH  075%=      5-min Rain = 0
KCR2 082225Z 26003KT 10/06 A3032 RMK A01 T01020057  RH  074%=      5-min Rain = 0
KCR2 082226Z 25004KT 10/06 A3032 RMK A01 T01020056  RH  073%=      5-min Rain = 0
KCR2 082227Z 24003KT 10/06 A3032 RMK A01 T01010059  RH  075%=      5-min Rain = 0
KCR2 082228Z 24002KT 10/06 A3032 RMK A01 T01010057  RH  074%=      5-min Rain = 0
KCR2 082229Z 21003KT 10/06 A3032 RMK A01 T01020058  RH  074%=      5-min Rain = 0
KCR2 082230Z 22003KT 10/06 A3032 RMK A01 T01010057  RH  074%=      5-min Rain = 0
KCR2 082231Z 23003KT 10/06 A3032 RMK A01 T01010059  RH  075%=      5-min Rain = 0
KCR2 082232Z 23002KT 10/06 A3032 RMK A01 T01010060  RH  076%=      5-min Rain = 0
KCR2 082233Z 24002KT 10/06 A3032 RMK A01 T01020062  RH  076%=      5-min Rain = 0
KCR2 082234Z 24002KT 10/06 A3032 RMK A01 T01020058  RH  074%=      5-min Rain = 0
KCR2 082235Z 24001KT 10/06 A3032 RMK A01 T01020059  RH  075%=      5-min Rain = 0
KCR2 082236Z 27002KT 10/06 A3032 RMK A01 T01020061  RH  076%=      5-min Rain = 0
KCR2 082237Z 25003KT 10/06 A3032 RMK A01 T01030061  RH  075%=      5-min Rain = 0
KCR2 082238Z 25002KT 10/06 A3032 RMK A01 T01020059  RH  074%=      5-min Rain = 0
KCR2 082239Z 26003KT 10/06 A3032 RMK A01 T01020060  RH  075%=      5-min Rain = 0
KCR2 082240Z 25005KT 10/06 A3032 RMK A01 T01020059  RH  074%=      5-min Rain = 0
KCR2 082241Z 24003KT 10/06 A3032 RMK A01 T01010057  RH  074%=      5-min Rain = 0
KCR2 082242Z 24003KT 10/06 A3032 RMK A01 T01010058  RH  075%=      5-min Rain = 0
KCR2 082243Z 25004KT 10/06 A3032 RMK A01 T01010059  RH  075%=      5-min Rain = 0
KCR2 082244Z 24004KT 10/06 A3032 RMK A01 T01010059  RH  075%=      5-min Rain = 0
KCR2 082245Z 25004KT 10/06 A3032 RMK A01 T01010059  RH  075%=      5-min Rain = 0
KCR2 082246Z 26003KT 10/06 A3032 RMK A01 T01010057  RH  074%=      5-min Rain = 0
KCR2 082247Z 28002KT 10/06 A3032 RMK A01 T01000057  RH  074%=      5-min Rain = 0
KCR2 082248Z 27002KT 10/06 A3032 RMK A01 T01000058  RH  075%=      5-min Rain = 0
KCR2 082249Z 26002KT 10/06 A3032 RMK A01 T01010060  RH  076%=      5-min Rain = 0
KCR2 082250Z 24004KT 10/06 A3032 RMK A01 T01010060  RH  076%=      5-min Rain = 0
KCR2 082251Z 23004KT 10/06 A3032 RMK A01 T01010058  RH  074%=      5-min Rain = 0
KCR2 082252Z 23004KT 10/06 A3032 RMK A01 T01010058  RH  075%=      5-min Rain = 0
KCR2 082253Z 23002KT 10/06 A3032 RMK A01 T01010059  RH  075%=      5-min Rain = 0
KCR2 082254Z 22003KT 10/06 A3032 RMK A01 T01000058  RH  075%=      5-min Rain = 0
KCR2 082255Z 23002KT 10/06 A3032 RMK A01 T01010058  RH  075%=      5-min Rain = 0
KCR2 082256Z 25002KT 10/06 A3032 RMK A01 T01010060  RH  076%=      5-min Rain = 0
KCR2 082257Z 25002KT 10/06 A3032 RMK A01 T01010059  RH  075%=      5-min Rain = 0
KCR2 082258Z 26002KT 10/06 A3032 RMK A01 T01010058  RH  075%=      5-min Rain = 0
KCR2 082259Z 27003KT 10/06 A3032 RMK A01 T01010059  RH  075%=      5-min Rain = 0
KCR2 082300Z 28003KT 10/06 A3032 RMK A01 T01010058  RH  075%=      5-min Rain = 0
KCR2 082301Z 27003KT 10/06 A3032 RMK A01 T01000058  RH  075%=      5-min Rain = 0
KCR2 082302Z 25003KT 10/06 A3032 RMK A01 T01000059  RH  075%=      5-min Rain = 0
KCR2 082303Z 25002KT 10/06 A3032 RMK A01 T01000059  RH  075%=      5-min Rain = 0
KCR2 082304Z 26001KT 10/06 A3032 RMK A01 T01010061  RH  076%=      5-min Rain = 0
KCR2 082305Z 27001KT 10/06 A3032 RMK A01 T01010059  RH  075%=      5-min Rain = 0
KCR2 082306Z 26002KT 10/06 A3032 RMK A01 T01010059  RH  075%=      5-min Rain = 0
KCR2 082307Z 25003KT 10/06 A3032 RMK A01 T01000058  RH  075%=      5-min Rain = 0
KCR2 082308Z 25004KT 10/06 A3032 RMK A01 T01000059  RH  076%=      5-min Rain = 0
KCR2 082309Z 26003KT 10/06 A3032 RMK A01 T01000059  RH  076%=      5-min Rain = 0
KCR2 082310Z 26003KT 10/06 A3032 RMK A01 T01000059  RH  076%=      5-min Rain = 0
KCR2 082311Z 25002KT 10/06 A3032 RMK A01 T01000058  RH  075%=      5-min Rain = 0
KCR2 082312Z 25002KT 10/06 A3032 RMK A01 T01000057  RH  075%=      5-min Rain = 0
KCR2 082313Z 25002KT 10/06 A3032 RMK A01 T01000060  RH  076%=      5-min Rain = 0
KCR2 082314Z 26002KT 10/06 A3032 RMK A01 T01000061  RH  077%=      5-min Rain = 0
KCR2 082315Z 26002KT 10/06 A3032 RMK A01 T01000059  RH  075%=      5-min Rain = 0
KCR2 082316Z 26003KT 10/06 A3032 RMK A01 T01000060  RH  076%=      5-min Rain = 0
KCR2 082317Z 25002KT 10/06 A3032 RMK A01 T01000058  RH  075%=      5-min Rain = 0
KCR2 082318Z 25003KT 10/06 A3032 RMK A01 T01000058  RH  075%=      5-min Rain = 0
KCR2 082319Z 25004KT 10/06 A3032 RMK A01 T01000059  RH  076%=      5-min Rain = 0
KCR2 082320Z 25004KT 10/06 A3032 RMK A01 T01000060  RH  076%=      5-min Rain = 0
KCR2 082321Z 24004KT 10/06 A3032 RMK A01 T01000060  RH  076%=      5-min Rain = 0
KCR2 082322Z 23004KT 10/06 A3032 RMK A01 T01000059  RH  076%=      5-min Rain = 0
KCR2 082323Z 23004KT 10/06 A3032 RMK A01 T00990058  RH  076%=      5-min Rain = 0
KCR2 082324Z 23003KT 10/06 A3032 RMK A01 T01000061  RH  077%=      5-min Rain = 0
KCR2 082325Z 24003KT 10/06 A3032 RMK A01 T01000061  RH  077%=      5-min Rain = 0
KCR2 082326Z 25003KT 10/06 A3033 RMK A01 T00990062  RH  077%=      5-min Rain = 0
KCR2 082327Z 25003KT 10/06 A3033 RMK A01 T01000060  RH  076%=      5-min Rain = 0
KCR2 082328Z 25003KT 10/06 A3033 RMK A01 T01000060  RH  076%=      5-min Rain = 0
KCR2 082329Z 25003KT 10/06 A3033 RMK A01 T01000060  RH  076%=      5-min Rain = 0
KCR2 082330Z 24004KT 10/06 A3033 RMK A01 T01000059  RH  076%=      5-min Rain = 0
KCR2 082331Z 24004KT 10/06 A3033 RMK A01 T01000060  RH  076%=      5-min Rain = 0
KCR2 082332Z 24004KT 10/06 A3032 RMK A01 T00990059  RH  076%=      5-min Rain = 0
KCR2 082333Z 24004KT 10/06 A3032 RMK A01 T00990058  RH  076%=      5-min Rain = 0
KCR2 082334Z 24004KT 10/06 A3032 RMK A01 T00990060  RH  077%=      5-min Rain = 0
KCR2 082335Z 24004KT 10/06 A3032 RMK A01 T00990060  RH  077%=      5-min Rain = 0
KCR2 082336Z 24004KT 10/06 A3032 RMK A01 T00990060  RH  077%=      5-min Rain = 0
KCR2 082337Z 24004KT 10/06 A3032 RMK A01 T00990062  RH  078%=      5-min Rain = 0
KCR2 082338Z 24004KT 10/06 A3032 RMK A01 T00990062  RH  078%=      5-min Rain = 0
KCR2 082339Z 24004KT 10/06 A3032 RMK A01 T00990062  RH  078%=      5-min Rain = 0
KCR2 082340Z 23004KT 10/06 A3032 RMK A01 T00990061  RH  078%=      5-min Rain = 0
KCR2 082341Z 24004KT 10/06 A3032 RMK A01 T00990061  RH  077%=      5-min Rain = 0
KCR2 082342Z 24003KT 10/06 A3032 RMK A01 T00990061  RH  077%=      5-min Rain = 0
KCR2 082343Z 24003KT 10/06 A3032 RMK A01 T00990063  RH  078%=      5-min Rain = 0
KCR2 082344Z 24003KT 10/06 A3032 RMK A01 T00990062  RH  078%=      5-min Rain = 0
KCR2 082345Z 24002KT 10/06 A3032 RMK A01 T00990062  RH  078%=      5-min Rain = 0
KCR2 082346Z 24003KT 10/06 A3032 RMK A01 T00990064  RH  079%=      5-min Rain = 0
KCR2 082347Z 22003KT 10/06 A3032 RMK A01 T00990064  RH  079%=      5-min Rain = 0
KCR2 082348Z 22004KT 10/06 A3032 RMK A01 T00990064  RH  079%=      5-min Rain = 0
KCR2 082349Z 22004KT 10/06 A3032 RMK A01 T00980062  RH  078%=      5-min Rain = 0
KCR2 082350Z 21005KT 10/06 A3032 RMK A01 T00980064  RH  080%=      5-min Rain = 0
KCR2 082351Z 21004KT 10/06 A3032 RMK A01 T00980062  RH  079%=      5-min Rain = 0
KCR2 082352Z 21004KT 10/06 A3032 RMK A01 T00970062  RH  079%=      5-min Rain = 0
KCR2 082353Z 21003KT 10/06 A3032 RMK A01 T00970061  RH  078%=      5-min Rain = 0
KCR2 082354Z 22003KT 10/06 A3032 RMK A01 T00970063  RH  079%=      5-min Rain = 0
KCR2 082355Z 22003KT 10/06 A3032 RMK A01 T00970064  RH  080%=      5-min Rain = 0
KCR2 082356Z 22003KT 10/06 A3032 RMK A01 T00970063  RH  079%=      5-min Rain = 0
KCR2 082357Z 22003KT 10/06 A3032 RMK A01 T00970063  RH  079%=      5-min Rain = 0
KCR2 082358Z 22003KT 10/06 A3032 RMK A01 T00970063  RH  079%=      5-min Rain = 0
KCR2 082359Z 22003KT 10/06 A3032 RMK A01 T00960063  RH  080%=      5-min Rain = 0
KCR2 090000Z 21003KT 10/06 A3032 RMK A01 T00960063  RH  080%=      5-min Rain = 0
KCR2 090001Z 22003KT 10/06 A3032 RMK A01 T00960063  RH  080%=      5-min Rain = 0
KCR2 090002Z 22003KT 10/06 A3032 RMK A01 T00970064  RH  080%=      5-min Rain = 0
KCR2 090003Z 22003KT 10/06 A3032 RMK A01 T00960063  RH  080%=      5-min Rain = 0
KCR2 090004Z 21003KT 10/06 A3032 RMK A01 T00960063  RH  080%=      5-min Rain = 0
KCR2 090005Z 21003KT 10/06 A3032 RMK A01 T00960064  RH  080%=      5-min Rain = 0
KCR2 090006Z 21004KT 10/06 A3032 RMK A01 T00960063  RH  080%=      5-min Rain = 0
KCR2 090007Z 21003KT 10/06 A3032 RMK A01 T00960063  RH  080%=      5-min Rain = 0
KCR2 090008Z 21004KT 10/07 A3032 RMK A01 T00960065  RH  081%=      5-min Rain = 0
KCR2 090009Z 21004KT 10/06 A3032 RMK A01 T00950064  RH  081%=      5-min Rain = 0
KCR2 090010Z 21004KT 10/07 A3032 RMK A01 T00960065  RH  081%=      5-min Rain = 0
KCR2 090011Z 21004KT 10/06 A3032 RMK A01 T00950064  RH  081%=      5-min Rain = 0
KCR2 090012Z 21003KT 10/06 A3032 RMK A01 T00950064  RH  081%=      5-min Rain = 0
KCR2 090013Z 21003KT 10/07 A3032 RMK A01 T00950065  RH  082%=      5-min Rain = 0
KCR2 090014Z 22003KT 10/07 A3032 RMK A01 T00950065  RH  082%=      5-min Rain = 0
KCR2 090015Z 22004KT 09/06 A3032 RMK A01 T00940064  RH  081%=      5-min Rain = 0
KCR2 090016Z 22004KT 09/06 A3032 RMK A01 T00940063  RH  081%=      5-min Rain = 0
KCR2 090017Z 21004KT 09/06 A3032 RMK A01 T00940063  RH  081%=      5-min Rain = 0
KCR2 090018Z 21004KT 09/06 A3032 RMK A01 T00940064  RH  082%=      5-min Rain = 0
KCR2 090019Z 22003KT 09/06 A3032 RMK A01 T00940064  RH  082%=      5-min Rain = 0
KCR2 090020Z 22004KT 09/06 A3032 RMK A01 T00940064  RH  082%=      5-min Rain = 0
KCR2 090021Z 22004KT 09/06 A3032 RMK A01 T00940064  RH  082%=      5-min Rain = 0
KCR2 090022Z 22004KT 09/06 A3032 RMK A01 T00940064  RH  082%=      5-min Rain = 0
KCR2 090023Z 22004KT 09/06 A3032 RMK A01 T00940064  RH  082%=      5-min Rain = 0
KCR2 090024Z 22004KT 09/07 A3032 RMK A01 T00930065  RH  083%=      5-min Rain = 0
KCR2 090025Z 22004KT 09/07 A3032 RMK A01 T00940066  RH  083%=      5-min Rain = 0
KCR2 090026Z 22004KT 09/07 A3032 RMK A01 T00940067  RH  083%=      5-min Rain = 0
KCR2 090027Z 22004KT 09/07 A3032 RMK A01 T00940067  RH  083%=      5-min Rain = 0
KCR2 090028Z 22003KT 09/07 A3032 RMK A01 T00940066  RH  083%=      5-min Rain = 0
KCR2 090029Z 22003KT 09/07 A3033 RMK A01 T00940065  RH  082%=      5-min Rain = 0
KCR2 090030Z 22004KT 09/07 A3032 RMK A01 T00930066  RH  083%=      5-min Rain = 0
KCR2 090031Z 22004KT 09/07 A3032 RMK A01 T00930065  RH  083%=      5-min Rain = 0
KCR2 090032Z 22004KT 09/07 A3032 RMK A01 T00930065  RH  083%=      5-min Rain = 0
KCR2 090033Z 22003KT 09/07 A3032 RMK A01 T00930066  RH  083%=      5-min Rain = 0
KCR2 090034Z 22003KT 09/07 A3032 RMK A01 T00930066  RH  083%=      5-min Rain = 0
KCR2 090035Z 22003KT 09/07 A3032 RMK A01 T00930066  RH  083%=      5-min Rain = 0
KCR2 090036Z 21003KT 09/07 A3032 RMK A01 T00930065  RH  083%=      5-min Rain = 0
KCR2 090037Z 21002KT 09/07 A3032 RMK A01 T00930066  RH  083%=      5-min Rain = 0
KCR2 090038Z 21002KT 09/07 A3032 RMK A01 T00930065  RH  083%=      5-min Rain = 0
KCR2 090039Z 21003KT 09/07 A3032 RMK A01 T00930065  RH  083%=      5-min Rain = 0
KCR2 090040Z 20003KT 09/07 A3032 RMK A01 T00930065  RH  083%=      5-min Rain = 0
KCR2 090041Z 21003KT 09/07 A3032 RMK A01 T00930065  RH  083%=      5-min Rain = 0
KCR2 090042Z 20003KT 09/07 A3032 RMK A01 T00930065  RH  083%=      5-min Rain = 0
KCR2 090043Z 20003KT 09/07 A3032 RMK A01 T00930067  RH  084%=      5-min Rain = 0
KCR2 090044Z 20003KT 09/07 A3032 RMK A01 T00920066  RH  084%=      5-min Rain = 0
KCR2 090045Z 21003KT 09/07 A3032 RMK A01 T00920065  RH  083%=      5-min Rain = 0
KCR2 090046Z 21003KT 09/07 A3032 RMK A01 T00920066  RH  084%=      5-min Rain = 0
KCR2 090047Z 21003KT 09/07 A3032 RMK A01 T00930067  RH  084%=      5-min Rain = 0
KCR2 090048Z 21003KT 09/07 A3032 RMK A01 T00920066  RH  084%=      5-min Rain = 0
KCR2 090049Z 21003KT 09/07 A3032 RMK A01 T00920067  RH  084%=      5-min Rain = 0
KCR2 090050Z 21003KT 09/07 A3032 RMK A01 T00920066  RH  084%=      5-min Rain = 0
KCR2 090051Z 21003KT 09/07 A3032 RMK A01 T00920067  RH  084%=      5-min Rain = 0
KCR2 090052Z 21003KT 09/07 A3032 RMK A01 T00920066  RH  084%=      5-min Rain = 0
KCR2 090053Z 20003KT 09/07 A3032 RMK A01 T00910066  RH  084%=      5-min Rain = 0
KCR2 090054Z 21003KT 09/07 A3032 RMK A01 T00910066  RH  084%=      5-min Rain = 0
KCR2 090055Z 21003KT 09/07 A3032 RMK A01 T00910066  RH  084%=      5-min Rain = 0
KCR2 090056Z 21003KT 09/07 A3032 RMK A01 T00910065  RH  084%=      5-min Rain = 0
KCR2 090057Z 21003KT 09/07 A3032 RMK A01 T00910066  RH  084%=      5-min Rain = 0
KCR2 090058Z 21003KT 09/07 A3032 RMK A01 T00910066  RH  085%=      5-min Rain = 0
KCR2 090059Z 21003KT 09/07 A3032 RMK A01 T00910067  RH  085%=      5-min Rain = 0
KCR2 090100Z 21003KT 09/07 A3032 RMK A01 T00910066  RH  084%=      5-min Rain = 0
KCR2 090101Z 21002KT 09/07 A3032 RMK A01 T00900065  RH  084%=      5-min Rain = 0
KCR2 090102Z 21002KT 09/07 A3032 RMK A01 T00910066  RH  085%=      5-min Rain = 0
KCR2 090103Z 20002KT 09/07 A3032 RMK A01 T00900066  RH  085%=      5-min Rain = 0
KCR2 090104Z 21002KT 09/07 A3032 RMK A01 T00900066  RH  085%=      5-min Rain = 0
KCR2 090105Z 21002KT 09/07 A3032 RMK A01 T00900065  RH  085%=      5-min Rain = 0
KCR2 090106Z 21002KT 09/07 A3033 RMK A01 T00900065  RH  084%=      5-min Rain = 0
KCR2 090107Z 21002KT 09/07 A3033 RMK A01 T00900065  RH  084%=      5-min Rain = 0
KCR2 090108Z 21001KT 09/07 A3033 RMK A01 T00900065  RH  084%=      5-min Rain = 0
KCR2 090109Z 21001KT 09/07 A3033 RMK A01 T00900065  RH  084%=      5-min Rain = 0
KCR2 090110Z 21001KT 09/07 A3033 RMK A01 T00900065  RH  084%=      5-min Rain = 0
KCR2 090111Z 21001KT 09/07 A3033 RMK A01 T00900065  RH  084%=      5-min Rain = 0
KCR2 090112Z 21001KT 09/07 A3033 RMK A01 T00890065  RH  084%=      5-min Rain = 0
KCR2 090113Z 21002KT 09/07 A3033 RMK A01 T00900065  RH  085%=      5-min Rain = 0
KCR2 090114Z 20002KT 09/07 A3033 RMK A01 T00900065  RH  085%=      5-min Rain = 0
KCR2 090115Z 21002KT 09/07 A3033 RMK A01 T00890065  RH  085%=      5-min Rain = 0
KCR2 090116Z 20001KT 09/06 A3033 RMK A01 T00900064  RH  084%=      5-min Rain = 0
KCR2 090117Z 20001KT 09/07 A3033 RMK A01 T00900065  RH  084%=      5-min Rain = 0
KCR2 090118Z 19001KT 09/07 A3033 RMK A01 T00900065  RH  085%=      5-min Rain = 0
KCR2 090119Z 20001KT 09/07 A3033 RMK A01 T00900065  RH  085%=      5-min Rain = 0
KCR2 090120Z 19001KT 09/06 A3033 RMK A01 T00890064  RH  085%=      5-min Rain = 0
KCR2 090121Z 19002KT 09/07 A3033 RMK A01 T00890065  RH  085%=      5-min Rain = 0
KCR2 090122Z 19002KT 09/06 A3033 RMK A01 T00890064  RH  084%=      5-min Rain = 0
KCR2 090123Z 19002KT 09/06 A3033 RMK A01 T00890064  RH  084%=      5-min Rain = 0
KCR2 090124Z 19002KT 09/06 A3033 RMK A01 T00890064  RH  084%=      5-min Rain = 0
KCR2 090125Z 18002KT 09/07 A3033 RMK A01 T00890065  RH  085%=      5-min Rain = 0
KCR2 090126Z 19002KT 09/07 A3033 RMK A01 T00900065  RH  085%=      5-min Rain = 0
KCR2 090127Z 19002KT 09/07 A3033 RMK A01 T00890065  RH  085%=      5-min Rain = 0
KCR2 090128Z 19003KT 09/07 A3033 RMK A01 T00890066  RH  085%=      5-min Rain = 0
KCR2 090129Z 19003KT 09/07 A3033 RMK A01 T00890066  RH  085%=      5-min Rain = 0
KCR2 090130Z 20003KT 09/07 A3033 RMK A01 T00890066  RH  085%=      5-min Rain = 0
KCR2 090131Z 19003KT 09/07 A3033 RMK A01 T00890066  RH  085%=      5-min Rain = 0
KCR2 090132Z 20003KT 09/07 A3033 RMK A01 T00890066  RH  085%=      5-min Rain = 0
KCR2 090133Z 19003KT 09/07 A3033 RMK A01 T00890066  RH  086%=      5-min Rain = 0
KCR2 090134Z 19003KT 09/07 A3033 RMK A01 T00890067  RH  086%=      5-min Rain = 0
KCR2 090135Z 19003KT 09/07 A3033 RMK A01 T00890067  RH  086%=      5-min Rain = 0
KCR2 090136Z 18003KT 09/07 A3033 RMK A01 T00890067  RH  086%=      5-min Rain = 0
KCR2 090137Z 18003KT 09/07 A3033 RMK A01 T00880068  RH  087%=      5-min Rain = 0
KCR2 090138Z 18003KT 09/07 A3033 RMK A01 T00880068  RH  087%=      5-min Rain = 0
KCR2 090139Z 18003KT 09/07 A3033 RMK A01 T00880068  RH  087%=      5-min Rain = 0
KCR2 090140Z 18003KT 09/07 A3033 RMK A01 T00880068  RH  088%=      5-min Rain = 0
KCR2 090141Z 17003KT 09/07 A3033 RMK A01 T00880068  RH  088%=      5-min Rain = 0
KCR2 090142Z 18003KT 09/07 A3033 RMK A01 T00880068  RH  088%=      5-min Rain = 0
KCR2 090143Z 18003KT 09/07 A3033 RMK A01 T00880068  RH  088%=      5-min Rain = 0
KCR2 090144Z 18003KT 09/07 A3033 RMK A01 T00880068  RH  088%=      5-min Rain = 0
KCR2 090145Z 18003KT 09/07 A3033 RMK A01 T00870068  RH  088%=      5-min Rain = 0
KCR2 090146Z 18003KT 09/07 A3033 RMK A01 T00870067  RH  087%=      5-min Rain = 0
KCR2 090147Z 18003KT 09/07 A3033 RMK A01 T00870067  RH  087%=      5-min Rain = 0
KCR2 090148Z 18003KT 09/07 A3033 RMK A01 T00870067  RH  087%=      5-min Rain = 0
KCR2 090149Z 18003KT 09/07 A3033 RMK A01 T00870067  RH  087%=      5-min Rain = 0
KCR2 090150Z 17003KT 09/07 A3033 RMK A01 T00870067  RH  087%=      5-min Rain = 0
KCR2 090151Z 17003KT 09/07 A3033 RMK A01 T00870068  RH  088%=      5-min Rain = 0
KCR2 090152Z 17003KT 09/07 A3033 RMK A01 T00870068  RH  088%=      5-min Rain = 0
KCR2 090153Z 16003KT 09/07 A3033 RMK A01 T00870068  RH  088%=      5-min Rain = 0
KCR2 090154Z 17003KT 09/07 A3033 RMK A01 T00870069  RH  088%=      5-min Rain = 0
KCR2 090155Z 17003KT 09/07 A3033 RMK A01 T00870069  RH  088%=      5-min Rain = 0
KCR2 090156Z 18003KT 09/07 A3033 RMK A01 T00870069  RH  089%=      5-min Rain = 0
KCR2 090157Z 18003KT 09/07 A3033 RMK A01 T00870070  RH  089%=      5-min Rain = 0
KCR2 090158Z 19003KT 09/07 A3033 RMK A01 T00860069  RH  089%=      5-min Rain = 0
KCR2 090159Z 19003KT 09/07 A3033 RMK A01 T00860069  RH  089%=      5-min Rain = 0
KCR2 090200Z 19003KT 09/07 A3033 RMK A01 T00860069  RH  089%=      5-min Rain = 0
KCR2 090201Z 19003KT 09/07 A3033 RMK A01 T00860068  RH  088%=      5-min Rain = 0
KCR2 090202Z 18003KT 09/07 A3033 RMK A01 T00870068  RH  088%=      5-min Rain = 0
KCR2 090203Z 18003KT 09/07 A3033 RMK A01 T00860067  RH  088%=      5-min Rain = 0
KCR2 090204Z 18003KT 09/07 A3033 RMK A01 T00860067  RH  088%=      5-min Rain = 0
KCR2 090205Z 18003KT 09/07 A3033 RMK A01 T00860068  RH  088%=      5-min Rain = 0
KCR2 090206Z 17003KT 09/07 A3033 RMK A01 T00860067  RH  088%=      5-min Rain = 0
KCR2 090207Z 17003KT 09/07 A3033 RMK A01 T00860067  RH  088%=      5-min Rain = 0
KCR2 090208Z 17003KT 09/07 A3033 RMK A01 T00860067  RH  088%=      5-min Rain = 0
KCR2 090209Z 17003KT 09/07 A3033 RMK A01 T00860067  RH  088%=      5-min Rain = 0
KCR2 090210Z 17002KT 09/07 A3033 RMK A01 T00860067  RH  088%=      5-min Rain = 0
KCR2 090211Z 17003KT 09/07 A3033 RMK A01 T00860067  RH  088%=      5-min Rain = 0
KCR2 090212Z 16002KT 09/07 A3033 RMK A01 T00860067  RH  088%=      5-min Rain = 0
KCR2 090213Z 16003KT 09/07 A3033 RMK A01 T00860068  RH  088%=      5-min Rain = 0
KCR2 090214Z 16003KT 09/07 A3033 RMK A01 T00860068  RH  089%=      5-min Rain = 0
KCR2 090215Z 16003KT 09/07 A3033 RMK A01 T00860068  RH  089%=      5-min Rain = 0
KCR2 090216Z 16004KT 09/07 A3033 RMK A01 T00850068  RH  089%=      5-min Rain = 0
KCR2 090217Z 16004KT 09/07 A3033 RMK A01 T00850068  RH  089%=      5-min Rain = 0
KCR2 090218Z 16004KT 09/07 A3033 RMK A01 T00850068  RH  089%=      5-min Rain = 0
KCR2 090219Z 16004KT 09/07 A3033 RMK A01 T00850068  RH  089%=      5-min Rain = 0
KCR2 090220Z 15004KT 09/07 A3033 RMK A01 T00850068  RH  089%=      5-min Rain = 0
KCR2 090221Z 15004KT 09/07 A3033 RMK A01 T00850068  RH  089%=      5-min Rain = 0
KCR2 090222Z 16004KT 09/07 A3033 RMK A01 T00850068  RH  089%=      5-min Rain = 0
KCR2 090223Z 16004KT 09/07 A3033 RMK A01 T00860068  RH  089%=      5-min Rain = 0
KCR2 090224Z 16003KT 09/07 A3033 RMK A01 T00860068  RH  089%=      5-min Rain = 0
KCR2 090225Z 17004KT 09/07 A3033 RMK A01 T00850068  RH  089%=      5-min Rain = 0
KCR2 090226Z 17004KT 09/07 A3033 RMK A01 T00850068  RH  089%=      5-min Rain = 0
KCR2 090227Z 16004KT 09/07 A3033 RMK A01 T00850067  RH  089%=      5-min Rain = 0
KCR2 090228Z 17004KT 09/07 A3033 RMK A01 T00850067  RH  088%=      5-min Rain = 0
KCR2 090229Z 16004KT 09/07 A3033 RMK A01 T00850067  RH  088%=      5-min Rain = 0
KCR2 090230Z 16004KT 09/07 A3033 RMK A01 T00860066  RH  088%=      5-min Rain = 0
KCR2 090231Z 16004KT 09/07 A3033 RMK A01 T00850066  RH  088%=      5-min Rain = 0
KCR2 090232Z 17004KT 09/07 A3033 RMK A01 T00860066  RH  088%=      5-min Rain = 0
KCR2 090233Z 17003KT 09/07 A3033 RMK A01 T00850066  RH  088%=      5-min Rain = 0
KCR2 090234Z 16003KT 09/07 A3033 RMK A01 T00850066  RH  088%=      5-min Rain = 0
KCR2 090235Z 16003KT 09/07 A3033 RMK A01 T00860066  RH  088%=      5-min Rain = 0
KCR2 090236Z 16003KT 09/07 A3033 RMK A01 T00850066  RH  088%=      5-min Rain = 0
KCR2 090237Z 16003KT 09/07 A3033 RMK A01 T00850066  RH  088%=      5-min Rain = 0
KCR2 090238Z 16003KT 09/07 A3033 RMK A01 T00850067  RH  088%=      5-min Rain = 0
KCR2 090239Z 15003KT 09/07 A3033 RMK A01 T00850067  RH  088%=      5-min Rain = 0
KCR2 090240Z 15003KT 09/07 A3033 RMK A01 T00860067  RH  088%=      5-min Rain = 0
KCR2 090241Z 15003KT 09/07 A3033 RMK A01 T00850067  RH  088%=      5-min Rain = 0
KCR2 090242Z 14003KT 09/07 A3033 RMK A01 T00850067  RH  088%=      5-min Rain = 0
KCR2 090243Z 14003KT 09/07 A3033 RMK A01 T00850066  RH  088%=      5-min Rain = 0
KCR2 090244Z 14003KT 08/07 A3033 RMK A01 T00840066  RH  088%=      5-min Rain = 0
KCR2 090245Z 15003KT 09/07 A3033 RMK A01 T00850066  RH  088%=      5-min Rain = 0
KCR2 090246Z 16003KT 08/07 A3033 RMK A01 T00840066  RH  088%=      5-min Rain = 0
KCR2 090247Z 16003KT 08/07 A3033 RMK A01 T00840066  RH  088%=      5-min Rain = 0
KCR2 090248Z 16003KT 08/07 A3033 RMK A01 T00840066  RH  088%=      5-min Rain = 0
KCR2 090249Z 16003KT 08/07 A3033 RMK A01 T00840066  RH  089%=      5-min Rain = 0
KCR2 090250Z 17003KT 08/07 A3033 RMK A01 T00840066  RH  089%=      5-min Rain = 0
KCR2 090251Z 17003KT 08/07 A3033 RMK A01 T00840066  RH  089%=      5-min Rain = 0
KCR2 090252Z 17003KT 08/07 A3033 RMK A01 T00840067  RH  089%=      5-min Rain = 0
KCR2 090253Z 16003KT 08/07 A3033 RMK A01 T00840067  RH  089%=      5-min Rain = 0
KCR2 090254Z 16002KT 08/07 A3033 RMK A01 T00840068  RH  089%=      5-min Rain = 0
KCR2 090255Z 16002KT 08/07 A3033 RMK A01 T00840068  RH  089%=      5-min Rain = 0
KCR2 090256Z 16002KT 08/07 A3033 RMK A01 T00840068  RH  089%=      5-min Rain = 0
KCR2 090257Z 17002KT 08/07 A3033 RMK A01 T00840067  RH  090%=      5-min Rain = 0
KCR2 090258Z 17003KT 08/07 A3033 RMK A01 T00840067  RH  090%=      5-min Rain = 0
KCR2 090259Z 17003KT 08/07 A3033 RMK A01 T00830067  RH  090%=      5-min Rain = 0
KCR2 090300Z 16003KT 08/07 A3033 RMK A01 T00830067  RH  090%=      5-min Rain = 0
KCR2 090301Z 16003KT 08/07 A3033 RMK A01 T00840068  RH  090%=      5-min Rain = 0
KCR2 090302Z 16002KT 08/07 A3033 RMK A01 T00830067  RH  090%=      5-min Rain = 0
KCR2 090303Z 16002KT 08/07 A3033 RMK A01 T00840068  RH  090%=      5-min Rain = 0
KCR2 090304Z 16002KT 08/07 A3033 RMK A01 T00840068  RH  090%=      5-min Rain = 0
KCR2 090305Z 16002KT 08/07 A3033 RMK A01 T00830067  RH  090%=      5-min Rain = 0
KCR2 090306Z 16002KT 08/07 A3033 RMK A01 T00830067  RH  090%=      5-min Rain = 0
KCR2 090307Z 16002KT 08/07 A3033 RMK A01 T00830067  RH  090%=      5-min Rain = 0
KCR2 090308Z 15001KT 08/07 A3033 RMK A01 T00830067  RH  090%=      5-min Rain = 0
KCR2 090309Z 16001KT 08/07 A3033 RMK A01 T00820067  RH  090%=      5-min Rain = 0
KCR2 090310Z 15001KT 08/07 A3033 RMK A01 T00830067  RH  090%=      5-min Rain = 0
KCR2 090311Z 16001KT 08/07 A3033 RMK A01 T00830067  RH  090%=      5-min Rain = 0
KCR2 090312Z 17001KT 08/07 A3033 RMK A01 T00830067  RH  090%=      5-min Rain = 0
KCR2 090313Z 18001KT 08/07 A3033 RMK A01 T00820067  RH  090%=      5-min Rain = 0
KCR2 090314Z 19001KT 08/07 A3033 RMK A01 T00820067  RH  090%=      5-min Rain = 0
KCR2 090315Z 19002KT 08/07 A3033 RMK A01 T00820067  RH  090%=      5-min Rain = 0
KCR2 090316Z 19002KT 08/07 A3033 RMK A01 T00820066  RH  090%=      5-min Rain = 0
KCR2 090317Z 18002KT 08/07 A3033 RMK A01 T00820067  RH  090%=      5-min Rain = 0
KCR2 090318Z 18003KT 08/07 A3033 RMK A01 T00820067  RH  091%=      5-min Rain = 0
KCR2 090319Z 18003KT 08/07 A3033 RMK A01 T00820067  RH  091%=      5-min Rain = 0
KCR2 090320Z 18003KT 08/07 A3034 RMK A01 T00820067  RH  090%=      5-min Rain = 0
KCR2 090321Z 18003KT 08/07 A3034 RMK A01 T00820067  RH  090%=      5-min Rain = 0
KCR2 090322Z 19003KT 08/07 A3034 RMK A01 T00820067  RH  090%=      5-min Rain = 0
KCR2 090323Z 19003KT 08/07 A3034 RMK A01 T00830067  RH  090%=      5-min Rain = 0
KCR2 090324Z 19002KT 08/07 A3034 RMK A01 T00830067  RH  090%=      5-min Rain = 0
KCR2 090325Z 19003KT 08/07 A3034 RMK A01 T00830067  RH  090%=      5-min Rain = 0
KCR2 090326Z 18003KT 08/07 A3033 RMK A01 T00830067  RH  090%=      5-min Rain = 0
KCR2 090327Z 18004KT 08/07 A3033 RMK A01 T00820066  RH  090%=      5-min Rain = 0
KCR2 090328Z 18004KT 08/07 A3034 RMK A01 T00820066  RH  090%=      5-min Rain = 0
KCR2 090329Z 18004KT 08/07 A3034 RMK A01 T00820066  RH  090%=      5-min Rain = 0
KCR2 090330Z 18004KT 08/07 A3034 RMK A01 T00820066  RH  090%=      5-min Rain = 0
KCR2 090331Z 18004KT 08/07 A3034 RMK A01 T00820066  RH  090%=      5-min Rain = 0
KCR2 090332Z 18004KT 08/07 A3034 RMK A01 T00820067  RH  090%=      5-min Rain = 0
KCR2 090333Z 18003KT 08/07 A3034 RMK A01 T00820067  RH  090%=      5-min Rain = 0
KCR2 090334Z 18003KT 08/07 A3034 RMK A01 T00820066  RH  090%=      5-min Rain = 0
KCR2 090335Z 18003KT 08/07 A3034 RMK A01 T00820065  RH  090%=      5-min Rain = 0
KCR2 090336Z 18003KT 08/07 A3034 RMK A01 T00820065  RH  089%=      5-min Rain = 0
KCR2 090337Z 18003KT 08/07 A3034 RMK A01 T00820065  RH  089%=      5-min Rain = 0
KCR2 090338Z 18003KT 08/07 A3034 RMK A01 T00820065  RH  089%=      5-min Rain = 0
KCR2 090339Z 18003KT 08/07 A3034 RMK A01 T00820065  RH  089%=      5-min Rain = 0
KCR2 090340Z 18003KT 08/07 A3034 RMK A01 T00820065  RH  089%=      5-min Rain = 0
KCR2 090341Z 18003KT 08/07 A3034 RMK A01 T00820065  RH  089%=      5-min Rain = 0
KCR2 090342Z 18003KT 08/07 A3033 RMK A01 T00820065  RH  089%=      5-min Rain = 0
KCR2 090343Z 18003KT 08/06 A3033 RMK A01 T00810064  RH  089%=      5-min Rain = 0
KCR2 090344Z 18004KT 08/07 A3033 RMK A01 T00810065  RH  089%=      5-min Rain = 0
KCR2 090345Z 18003KT 08/07 A3034 RMK A01 T00810065  RH  089%=      5-min Rain = 0
KCR2 090346Z 18003KT 08/07 A3034 RMK A01 T00810065  RH  089%=      5-min Rain = 0
KCR2 090347Z 18003KT 08/07 A3034 RMK A01 T00810065  RH  089%=      5-min Rain = 0
KCR2 090348Z 18003KT 08/07 A3034 RMK A01 T00810065  RH  090%=      5-min Rain = 0
KCR2 090349Z 17002KT 08/06 A3034 RMK A01 T00800064  RH  090%=      5-min Rain = 0
KCR2 090350Z 17002KT 08/07 A3034 RMK A01 T00810065  RH  090%=      5-min Rain = 0
KCR2 090351Z 17002KT 08/06 A3034 RMK A01 T00800064  RH  090%=      5-min Rain = 0
KCR2 090352Z 16002KT 08/07 A3034 RMK A01 T00800065  RH  090%=      5-min Rain = 0
KCR2 090353Z 16002KT 08/06 A3034 RMK A01 T00800064  RH  090%=      5-min Rain = 0
KCR2 090354Z 16002KT 08/07 A3034 RMK A01 T00800065  RH  090%=      5-min Rain = 0
KCR2 090355Z 16002KT 08/07 A3034 RMK A01 T00800065  RH  090%=      5-min Rain = 0
KCR2 090356Z 16003KT 08/07 A3034 RMK A01 T00800065  RH  090%=      5-min Rain = 0
KCR2 090357Z 16003KT 08/06 A3033 RMK A01 T00790064  RH  090%=      5-min Rain = 0
KCR2 090358Z 17003KT 08/07 A3033 RMK A01 T00790065  RH  090%=      5-min Rain = 0
KCR2 090359Z 17003KT 08/07 A3033 RMK A01 T00790065  RH  091%=      5-min Rain = 0
KCR2 090400Z 17003KT 08/07 A3033 RMK A01 T00800065  RH  091%=      5-min Rain = 0
KCR2 090401Z 17003KT 08/07 A3033 RMK A01 T00790065  RH  091%=      5-min Rain = 0
KCR2 090402Z 16003KT 08/07 A3033 RMK A01 T00790065  RH  090%=      5-min Rain = 0
KCR2 090403Z 16003KT 08/07 A3033 RMK A01 T00790065  RH  090%=      5-min Rain = 0
KCR2 090404Z 15003KT 08/06 A3033 RMK A01 T00790064  RH  090%=      5-min Rain = 0
KCR2 090405Z 15003KT 08/06 A3033 RMK A01 T00790064  RH  090%=      5-min Rain = 0
KCR2 090406Z 14002KT 08/06 A3033 RMK A01 T00790064  RH  090%=      5-min Rain = 0
KCR2 090407Z 14002KT 08/06 A3034 RMK A01 T00790064  RH  090%=      5-min Rain = 0
KCR2 090408Z 13001KT 08/06 A3034 RMK A01 T00790064  RH  090%=      5-min Rain = 0
KCR2 090409Z 11001KT 08/06 A3034 RMK A01 T00790064  RH  090%=      5-min Rain = 0
KCR2 090410Z 10001KT 08/06 A3034 RMK A01 T00780063  RH  090%=      5-min Rain = 0
KCR2 090411Z 11000KT 08/06 A3034 RMK A01 T00780063  RH  090%=      5-min Rain = 0
KCR2 090412Z 00000KT 08/06 A3034 RMK A01 T00780063  RH  091%=      5-min Rain = 0
KCR2 090413Z 16001KT 08/06 A3034 RMK A01 T00780063  RH  091%=      5-min Rain = 0
KCR2 090414Z 16001KT 08/06 A3034 RMK A01 T00770063  RH  091%=      5-min Rain = 0
KCR2 090415Z 16001KT 08/06 A3034 RMK A01 T00770063  RH  091%=      5-min Rain = 0
KCR2 090416Z 16000KT 08/06 A3034 RMK A01 T00770062  RH  091%=      5-min Rain = 0
KCR2 090417Z 00000KT 08/06 A3034 RMK A01 T00770062  RH  091%=      5-min Rain = 0
KCR2 090418Z 18000KT 08/06 A3034 RMK A01 T00760062  RH  091%=      5-min Rain = 0
KCR2 090419Z 18001KT 08/06 A3034 RMK A01 T00760062  RH  091%=      5-min Rain = 0
KCR2 090420Z 19001KT 08/06 A3034 RMK A01 T00760063  RH  091%=      5-min Rain = 0
KCR2 090421Z 19001KT 08/06 A3034 RMK A01 T00760063  RH  091%=      5-min Rain = 0
KCR2 090422Z 19001KT 08/06 A3034 RMK A01 T00760064  RH  092%=      5-min Rain = 0
KCR2 090423Z 19002KT 08/06 A3034 RMK A01 T00770064  RH  092%=      5-min Rain = 0
KCR2 090424Z 19002KT 08/06 A3034 RMK A01 T00770064  RH  092%=      5-min Rain = 0
KCR2 090425Z 19002KT 08/07 A3034 RMK A01 T00770065  RH  092%=      5-min Rain = 0
KCR2 090426Z 19002KT 08/07 A3034 RMK A01 T00780065  RH  092%=      5-min Rain = 0
KCR2 090427Z 19003KT 08/07 A3034 RMK A01 T00770065  RH  092%=      5-min Rain = 0
KCR2 090428Z 19003KT 08/07 A3034 RMK A01 T00780065  RH  092%=      5-min Rain = 0
KCR2 090429Z 19002KT 08/07 A3034 RMK A01 T00780065  RH  092%=      5-min Rain = 0
KCR2 090430Z 20002KT 08/07 A3034 RMK A01 T00780065  RH  091%=      5-min Rain = 0
KCR2 090431Z 20002KT 08/06 A3034 RMK A01 T00780064  RH  091%=      5-min Rain = 0
KCR2 090432Z 20003KT 08/06 A3034 RMK A01 T00780064  RH  091%=      5-min Rain = 0
KCR2 090433Z 20003KT 08/06 A3034 RMK A01 T00770064  RH  091%=      5-min Rain = 0
KCR2 090434Z 20003KT 08/06 A3034 RMK A01 T00780064  RH  091%=      5-min Rain = 0
KCR2 090435Z 20004KT 08/06 A3034 RMK A01 T00780064  RH  091%=      5-min Rain = 0
KCR2 090436Z 20004KT 08/06 A3034 RMK A01 T00770063  RH  091%=      5-min Rain = 0
KCR2 090437Z 20004KT 08/06 A3034 RMK A01 T00770063  RH  091%=      5-min Rain = 0
KCR2 090438Z 20005KT 08/06 A3035 RMK A01 T00770063  RH  091%=      5-min Rain = 0
KCR2 090439Z 20005KT 08/06 A3035 RMK A01 T00770063  RH  091%=      5-min Rain = 0
KCR2 090440Z 20005KT 08/06 A3035 RMK A01 T00760062  RH  091%=      5-min Rain = 0
KCR2 090441Z 20005KT 08/06 A3035 RMK A01 T00760062  RH  091%=      5-min Rain = 0
KCR2 090442Z 20005KT 08/06 A3035 RMK A01 T00760062  RH  091%=      5-min Rain = 0
KCR2 090443Z 20005KT 08/06 A3035 RMK A01 T00760062  RH  091%=      5-min Rain = 0
KCR2 090444Z 20005KT 08/06 A3035 RMK A01 T00750062  RH  091%=      5-min Rain = 0
KCR2 090445Z 20005KT 08/06 A3035 RMK A01 T00750061  RH  091%=      5-min Rain = 0
KCR2 090446Z 19005KT 08/06 A3035 RMK A01 T00750061  RH  091%=      5-min Rain = 0
KCR2 090447Z 19005KT 08/06 A3035 RMK A01 T00750061  RH  091%=      5-min Rain = 0
KCR2 090448Z 19005KT 08/06 A3035 RMK A01 T00750061  RH  091%=      5-min Rain = 0
KCR2 090449Z 19005KT 08/06 A3035 RMK A01 T00750061  RH  091%=      5-min Rain = 0
KCR2 090450Z 19005KT 08/06 A3035 RMK A01 T00750062  RH  091%=      5-min Rain = 0
KCR2 090451Z 19004KT 08/06 A3035 RMK A01 T00750062  RH  091%=      5-min Rain = 0
KCR2 090452Z 19004KT 08/06 A3035 RMK A01 T00760062  RH  091%=      5-min Rain = 0
KCR2 090453Z 19004KT 08/06 A3035 RMK A01 T00760063  RH  091%=      5-min Rain = 0
KCR2 090454Z 19004KT 08/06 A3035 RMK A01 T00760063  RH  091%=      5-min Rain = 0
KCR2 090455Z 19004KT 08/06 A3035 RMK A01 T00770063  RH  091%=      5-min Rain = 0
KCR2 090456Z 19004KT 08/06 A3034 RMK A01 T00770063  RH  091%=      5-min Rain = 0
KCR2 090457Z 19004KT 08/06 A3034 RMK A01 T00770063  RH  091%=      5-min Rain = 0
KCR2 090458Z 19004KT 08/06 A3034 RMK A01 T00770064  RH  091%=      5-min Rain = 0
KCR2 090459Z 19004KT 08/06 A3034 RMK A01 T00770063  RH  091%=      5-min Rain = 0
KCR2 090500Z 19004KT 08/06 A3034 RMK A01 T00770063  RH  091%=      5-min Rain = 0
KCR2 090501Z 19004KT 08/06 A3034 RMK A01 T00780063  RH  091%=      5-min Rain = 0
KCR2 090502Z 19004KT 08/06 A3034 RMK A01 T00780063  RH  091%=      5-min Rain = 0
KCR2 090503Z 19004KT 08/06 A3034 RMK A01 T00780063  RH  091%=      5-min Rain = 0
KCR2 090504Z 19004KT 08/06 A3034 RMK A01 T00780063  RH  090%=      5-min Rain = 0
KCR2 090505Z 19004KT 08/06 A3034 RMK A01 T00780063  RH  090%=      5-min Rain = 0
KCR2 090506Z 20004KT 08/06 A3034 RMK A01 T00780063  RH  090%=      5-min Rain = 0
KCR2 090507Z 20004KT 08/06 A3034 RMK A01 T00780063  RH  090%=      5-min Rain = 0
KCR2 090508Z 20004KT 08/06 A3034 RMK A01 T00780063  RH  090%=      5-min Rain = 0
KCR2 090509Z 20004KT 08/06 A3034 RMK A01 T00780063  RH  090%=      5-min Rain = 0
KCR2 090510Z 20005KT 08/06 A3034 RMK A01 T00770063  RH  090%=      5-min Rain = 0
KCR2 090511Z 20004KT 08/06 A3034 RMK A01 T00770063  RH  090%=      5-min Rain = 0
KCR2 090512Z 20004KT 08/06 A3034 RMK A01 T00770063  RH  090%=      5-min Rain = 0
KCR2 090513Z 20004KT 08/06 A3034 RMK A01 T00770062  RH  090%=      5-min Rain = 0
KCR2 090514Z 20004KT 08/06 A3034 RMK A01 T00770062  RH  091%=      5-min Rain = 0
KCR2 090515Z 20004KT 08/06 A3034 RMK A01 T00770062  RH  091%=      5-min Rain = 0
KCR2 090516Z 20004KT 08/06 A3034 RMK A01 T00770063  RH  091%=      5-min Rain = 0
KCR2 090517Z 20003KT 08/06 A3034 RMK A01 T00760062  RH  091%=      5-min Rain = 0
KCR2 090518Z 20003KT 08/06 A3034 RMK A01 T00760062  RH  091%=      5-min Rain = 0
KCR2 090519Z 20003KT 08/06 A3034 RMK A01 T00760062  RH  091%=      5-min Rain = 0
KCR2 090520Z 20003KT 08/06 A3034 RMK A01 T00760062  RH  091%=      5-min Rain = 0
KCR2 090521Z 19003KT 08/06 A3034 RMK A01 T00760062  RH  091%=      5-min Rain = 0
KCR2 090522Z 19003KT 08/06 A3034 RMK A01 T00760062  RH  091%=      5-min Rain = 0
KCR2 090523Z 19003KT 08/06 A3034 RMK A01 T00760061  RH  091%=      5-min Rain = 0
KCR2 090524Z 19003KT 08/06 A3034 RMK A01 T00760061  RH  091%=      5-min Rain = 0
KCR2 090525Z 19003KT 08/06 A3034 RMK A01 T00760061  RH  091%=      5-min Rain = 0
KCR2 090526Z 19003KT 08/06 A3034 RMK A01 T00760061  RH  090%=      5-min Rain = 0
KCR2 090527Z 18003KT 08/06 A3034 RMK A01 T00760061  RH  090%=      5-min Rain = 0
KCR2 090528Z 18003KT 08/06 A3034 RMK A01 T00750061  RH  090%=      5-min Rain = 0
KCR2 090529Z 18003KT 08/06 A3033 RMK A01 T00750061  RH  090%=      5-min Rain = 0
KCR2 090530Z 18004KT 08/06 A3033 RMK A01 T00750060  RH  091%=      5-min Rain = 0
KCR2 090531Z 18004KT 08/06 A3033 RMK A01 T00750060  RH  091%=      5-min Rain = 0
KCR2 090532Z 18004KT 07/06 A3033 RMK A01 T00740061  RH  091%=      5-min Rain = 0
KCR2 090533Z 18004KT 07/06 A3033 RMK A01 T00740061  RH  091%=      5-min Rain = 0
KCR2 090534Z 18004KT 07/06 A3033 RMK A01 T00740061  RH  091%=      5-min Rain = 0
KCR2 090535Z 18004KT 07/06 A3033 RMK A01 T00740061  RH  091%=      5-min Rain = 0
KCR2 090536Z 18004KT 07/06 A3033 RMK A01 T00740061  RH  091%=      5-min Rain = 0
KCR2 090537Z 18004KT 07/06 A3033 RMK A01 T00740061  RH  091%=      5-min Rain = 0
KCR2 090538Z 18004KT 07/06 A3033 RMK A01 T00740061  RH  091%=      5-min Rain = 0
KCR2 090539Z 18004KT 07/06 A3033 RMK A01 T00740061  RH  091%=      5-min Rain = 0
KCR2 090540Z 18004KT 07/06 A3033 RMK A01 T00730060  RH  091%=      5-min Rain = 0
KCR2 090541Z 18005KT 07/06 A3033 RMK A01 T00730060  RH  092%=      5-min Rain = 0
KCR2 090542Z 18004KT 07/06 A3033 RMK A01 T00730060  RH  092%=      5-min Rain = 0
KCR2 090543Z 18004KT 07/06 A3033 RMK A01 T00730060  RH  092%=      5-min Rain = 0
KCR2 090544Z 17004KT 07/06 A3033 RMK A01 T00720060  RH  092%=      5-min Rain = 0
KCR2 090545Z 17003KT 07/06 A3032 RMK A01 T00730060  RH  092%=      5-min Rain = 0
KCR2 090546Z 17003KT 07/06 A3032 RMK A01 T00730061  RH  092%=      5-min Rain = 0
KCR2 090547Z 18003KT 07/06 A3032 RMK A01 T00720060  RH  092%=      5-min Rain = 0
KCR2 090548Z 18004KT 07/06 A3032 RMK A01 T00720060  RH  092%=      5-min Rain = 0
KCR2 090549Z 18004KT 07/06 A3032 RMK A01 T00720060  RH  092%=      5-min Rain = 0
KCR2 090550Z 18003KT 07/06 A3033 RMK A01 T00720060  RH  092%=      5-min Rain = 0
KCR2 090551Z 18003KT 07/06 A3033 RMK A01 T00720060  RH  092%=      5-min Rain = 0
KCR2 090552Z 18003KT 07/06 A3033 RMK A01 T00720060  RH  092%=      5-min Rain = 0
KCR2 090553Z 19003KT 07/06 A3033 RMK A01 T00720060  RH  092%=      5-min Rain = 0
KCR2 090554Z 19003KT 07/06 A3033 RMK A01 T00720060  RH  092%=      5-min Rain = 0
KCR2 090555Z 19003KT 07/06 A3033 RMK A01 T00720060  RH  092%=      5-min Rain = 0
KCR2 090556Z 19003KT 07/06 A3033 RMK A01 T00720060  RH  092%=      5-min Rain = 0
KCR2 090557Z 19003KT 07/06 A3033 RMK A01 T00720060  RH  092%=      5-min Rain = 0
KCR2 090558Z 19003KT 07/06 A3033 RMK A01 T00720059  RH  092%=      5-min Rain = 0
KCR2 090559Z 19002KT 07/06 A3033 RMK A01 T00720060  RH  092%=      5-min Rain = 0

Page generated in 0.0703 seconds.